BG4WDV-11 Weather Reports


time (UTC)temp
C
wind
direction
speed
KPH
gust
KPH
rain 1hr
cm
rain 24hr
cm
rain mn
cm
humidity
%
barometer
mb
20260902221739 24 315 0.0 4.8 0.00 0.00 0.00 93 1008.1
20260902221639 24 45 0.0 3.2 0.00 0.00 0.00 93 1008.1
20260902221539 24 0 0.0 3.2 0.00 0.00 0.00 93 1008.0
20260902221439 24 180 0.0 3.2 0.00 0.00 0.00 93 1007.9
20260902221339 24 180 0.0 3.2 0.00 0.00 0.00 93 1008.0
20260902221239 24 180 0.0 3.2 0.00 0.00 0.00 93 1008.0
20260902221139 24 180 0.0 3.2 0.00 0.00 0.00 93 1007.9
20260902221039 24 180 0.0 3.2 0.00 0.00 0.00 94 1007.9
20260902220939 24 180 0.0 3.2 0.00 0.00 0.00 93 1007.8
20260902220839 24 0 0.0 3.2 0.00 0.00 0.00 93 1007.8
20260902220739 24 180 0.0 3.2 0.00 0.00 0.00 93 1007.8
20260902220639 24 180 0.0 3.2 0.00 0.00 0.00 93 1007.9
20260902220539 24 180 0.0 3.2 0.00 0.00 0.00 94 1007.9
20260902220439 24 0 0.0 3.2 0.00 0.00 0.00 93 1007.7
20260902220339 24 180 0.0 3.2 0.00 0.00 0.00 93 1007.8
20260902220239 24 180 0.0 3.2 0.00 0.00 0.00 93 1007.8
20260902220139 24 180 0.0 3.2 0.00 0.00 0.00 93 1007.8
20260902220039 24 45 0.0 3.2 0.00 0.00 0.00 93 1007.7
20260902215939 24 45 0.0 3.2 0.00 0.00 0.00 93 1007.8
20260902215839 24 180 0.0 3.2 0.00 0.00 0.00 94 1007.7
20260902215739 24 180 0.0 3.2 0.00 0.00 0.00 94 1007.8
20260902215639 24 225 0.0 3.2 0.00 0.00 0.00 94 1007.8
20260902215539 24 180 0.0 1.6 0.00 0.00 0.00 94 1007.8
20260902215439 24 270 0.0 1.6 0.00 0.00 0.00 94 1007.8
20260902215339 24 180 0.0 1.6 0.00 0.00 0.00 94 1007.8
20260902215239 24 180 0.0 1.6 0.00 0.00 0.00 94 1007.7
20260902215139 24 45 0.0 1.6 0.00 0.00 0.00 94 1007.6
20260902215039 24 270 0.0 1.6 0.00 0.00 0.00 94 1007.8
20260902214939 24 315 0.0 1.6 0.00 0.00 0.00 94 1007.7
20260902214839 24 0 4.8 0.0 0.00 0.00 0.00 94 1007.7
20260902214739 25 180 0.0 4.8 0.00 0.00 0.00 94 1007.8
20260902214639 25 0 0.0 4.8 0.00 0.00 0.00 94 1007.7
20260902214539 25 225 0.0 4.8 0.00 0.00 0.00 94 1007.9
20260902214439 25 225 0.0 4.8 0.00 0.00 0.00 94 1007.8
20260902214339 25 225 0.0 4.8 0.00 0.00 0.00 94 1007.7
20260902214239 25 0 0.0 4.8 0.00 0.00 0.00 94 1007.6
20260902214139 25 0 0.0 4.8 0.00 0.00 0.00 94 1007.8
20260902214039 25 180 0.0 4.8 0.00 0.00 0.00 94 1007.6
20260902213939 25 0 0.0 4.8 0.00 0.00 0.00 94 1007.6
20260902213839 25 0 0.0 3.2 0.00 0.00 0.00 94 1007.5
20260902213739 25 225 0.0 3.2 0.00 0.00 0.00 94 1007.7
20260902213639 25 270 0.0 3.2 0.00 0.00 0.00 94 1007.8
20260902213539 25 270 0.0 3.2 0.00 0.00 0.00 94 1007.7
20260902213439 25 0 0.0 3.2 0.00 0.00 0.00 94 1007.7
20260902213339 25 180 0.0 3.2 0.00 0.00 0.00 94 1007.5
20260902213238 -17 75 19.3 0.0 0.00 0.00 0.00
20260902213139 25 0 0.0 1.6 0.00 0.00 0.00 94 1007.6
20260902213039 25 0 0.0 1.6 0.00 0.00 0.00 94 1007.5
20260902212939 25 0 0.0 1.6 0.00 0.00 0.00 94 1007.5
20260902212839 25 0 0.0 3.2 0.00 0.00 0.00 94 1007.4
20260902212739 25 225 0.0 3.2 0.00 0.00 0.00 94 1007.5
20260902212639 25 0 0.0 3.2 0.00 0.00 0.00 94 1007.5
20260902212539 25 180 0.0 3.2 0.00 0.00 0.00 94 1007.5
20260902212439 25 180 0.0 3.2 0.00 0.00 0.00 94 1007.5
20260902212339 25 180 0.0 3.2 0.00 0.00 0.00 94 1007.4
20260902212239 25 315 0.0 3.2 0.00 0.00 0.00 94 1007.5
20260902212139 25 0 0.0 3.2 0.00 0.00 0.00 94 1007.4
20260902212039 25 180 0.0 3.2 0.00 0.00 0.00 94 1007.3
20260902211939 25 225 0.0 3.2 0.00 0.00 0.00 94 1007.5
20260902211839 25 180 0.0 3.2 0.00 0.00 0.00 94 1007.4
20260902211739 25 270 0.0 3.2 0.00 0.00 0.00 94 1007.3
20260902211639 25 180 0.0 3.2 0.00 0.00 0.00 94 1007.3
20260902211539 25 180 0.0 3.2 0.00 0.00 0.00 94 1007.5
20260902211439 25 180 0.0 3.2 0.00 0.00 0.00 94 1007.3
20260902211339 25 0 0.0 3.2 0.00 0.00 0.00 94 1007.4
20260902211239 25 180 0.0 3.2 0.00 0.00 0.00 94 1007.4
20260902211139 25 180 0.0 3.2 0.00 0.00 0.00 94 1007.5
20260902211039 25 180 0.0 3.2 0.00 0.00 0.00 94 1007.4
20260902210939 25 225 0.0 3.2 0.00 0.00 0.00 94 1007.4
20260902210839 25 225 0.0 3.2 0.00 0.00 0.00 94 1007.4
20260902210739 24 0 0.0 3.2 0.00 0.00 0.00 94 1007.3
20260902210639 25 180 0.0 3.2 0.00 0.00 0.00 94 1007.4
20260902210539 25 0 0.0 3.2 0.00 0.00 0.00 94 1007.3
20260902210439 24 0 0.0 3.2 0.00 0.00 0.00 94 1007.4
20260902210339 24 0 0.0 3.2 0.00 0.00 0.00 94 1007.5
20260902210239 24 0 0.0 3.2 0.00 0.00 0.00 94 1007.3
20260902210139 24 0 0.0 3.2 0.00 0.00 0.00 94 1007.2
20260902210039 24 225 0.0 3.2 0.00 0.00 0.00 94 1007.3
20260902205939 24 225 0.0 3.2 0.00 0.00 0.00 94 1007.3
20260902205839 24 0 0.0 3.2 0.00 0.00 0.00 94 1007.3
20260902205739 24 225 0.0 3.2 0.00 0.00 0.00 94 1007.2
20260902205639 24 0 0.0 3.2 0.00 0.00 0.00 94 1007.4
20260902205539 24 315 0.0 3.2 0.00 0.00 0.00 94 1007.4
20260902205439 24 315 0.0 3.2 0.00 0.00 0.00 94 1007.4
20260902205339 24 180 0.0 3.2 0.00 0.00 0.00 94 1007.2
20260902205239 24 180 0.0 3.2 0.00 0.00 0.00 94 1007.2
20260902205139 24 0 0.0 3.2 0.00 0.00 0.00 94 1007.3
20260902205039 24 45 0.0 3.2 0.00 0.00 0.00 94 1007.2
20260902204939 24 0 0.0 3.2 0.00 0.00 0.00 94 1007.3
20260902204839 24 180 0.0 3.2 0.00 0.00 0.00 94 1007.3
20260902204739 24 180 0.0 3.2 0.00 0.00 0.00 94 1007.3
20260902204639 24 0 0.0 3.2 0.00 0.00 0.00 94 1007.5
20260902204539 24 180 0.0 3.2 0.00 0.00 0.00 94 1007.4
20260902204439 24 180 0.0 3.2 0.00 0.00 0.00 94 1007.3
20260902204338 24 0 3.2 0.0 0.00 0.00 0.00 94 1007.2
20260902204239 24 315 0.0 3.2 0.00 0.00 0.00 94 1007.1
20260902204139 24 180 0.0 3.2 0.00 0.00 0.00 94 1007.4
20260902204039 24 0 0.0 3.2 0.00 0.00 0.00 94 1007.4
20260902203939 24 270 0.0 3.2 0.00 0.00 0.00 94 1007.4
20260902203838 24 0 6.4 0.0 0.00 0.00 0.00 94 1007.4
20260902203739 24 180 0.0 6.4 0.00 0.00 0.00 94 1007.3
20260902203638 24 270 0.0 6.4 0.00 0.00 0.00 94 1007.3
20260902203539 25 180 0.0 6.4 0.00 0.00 0.00 94 1007.3
20260902203439 25 180 0.0 6.4 0.00 0.00 0.00 94 1007.3
20260902203339 25 180 0.0 6.4 0.00 0.00 0.00 94 1007.2
20260902203239 25 180 0.0 6.4 0.00 0.00 0.00 94 1007.3
20260902203138 25 180 0.0 6.4 0.00 0.00 0.00 95 1007.2
20260902203039 25 180 0.0 6.4 0.00 0.00 0.00 94 1007.3
20260902202939 25 180 1.6 6.4 0.00 0.00 0.00 94 1007.1
20260902202839 25 270 0.0 4.8 0.00 0.00 0.00 95 1007.2
20260902202738 25 45 0.0 4.8 0.00 0.00 0.00 95 1007.2
20260902202638 25 270 0.0 3.2 0.00 0.00 0.00 95 1007.3
20260902202539 25 0 0.0 4.8 0.00 0.00 0.00 95 1007.2
20260902202438 25 0 4.8 0.0 0.00 0.00 0.00 95 1007.0
20260902202338 25 315 0.0 4.8 0.00 0.00 0.00 95 1007.1
20260902202238 25 180 0.0 4.8 0.00 0.00 0.00 95 1007.1
20260902202139 25 0 0.0 4.8 0.00 0.00 0.00 95 1007.1
20260902202039 25 0 0.0 4.8 0.00 0.00 0.00 95 1007.0
20260902201939 25 0 0.0 4.8 0.00 0.00 0.00 95 1007.2
20260902201838 25 315 0.0 4.8 0.00 0.00 0.00 95 1007.0
20260902201738 25 270 0.0 4.8 0.00 0.00 0.00 95 1007.0
20260902201639 25 0 0.0 4.8 0.00 0.00 0.00 95 1006.9
20260902201539 25 225 0.0 3.2 0.00 0.00 0.00 95 1006.9
20260902201438 25 0 0.0 4.8 0.00 0.00 0.00 95 1007.0
20260902201338 25 0 0.0 4.8 0.00 0.00 0.00 95 1006.9
20260902201238 25 180 0.0 4.8 0.00 0.00 0.00 95 1007.0
20260902201139 25 225 0.0 4.8 0.00 0.00 0.00 95 1006.8
20260902201039 25 0 0.0 4.8 0.00 0.00 0.00 95 1006.9
20260902200938 25 0 0.0 4.8 0.00 0.00 0.00 95 1007.0
20260902200838 25 225 0.0 4.8 0.00 0.00 0.00 95 1006.9
20260902200739 25 315 0.0 4.8 0.00 0.00 0.00 95 1007.1
20260902200639 25 45 1.6 4.8 0.00 0.00 0.00 95 1006.9
20260902200538 25 270 1.6 4.8 0.00 0.00 0.00 95 1006.9
20260902200438 25 315 0.0 4.8 0.00 0.00 0.00 95 1006.9
20260902200338 25 0 0.0 1.6 0.00 0.00 0.00 95 1006.8
20260902200239 25 0 0.0 1.6 0.00 0.00 0.00 95 1006.9
20260902200138 25 0 0.0 1.6 0.00 0.00 0.00 95 1007.0
20260902200038 25 0 0.0 3.2 0.00 0.00 0.00 95 1006.9
20260902195938 25 0 0.0 3.2 0.00 0.00 0.00 95 1006.8
20260902195838 25 180 0.0 3.2 0.00 0.00 0.00 95 1007.0
20260902195739 25 0 0.0 3.2 0.00 0.00 0.00 95 1006.8
20260902195639 25 225 0.0 3.2 0.00 0.00 0.00 95 1006.9
20260902195538 25 225 0.0 3.2 0.00 0.00 0.00 95 1006.8
20260902195438 25 225 0.0 3.2 0.00 0.00 0.00 95 1006.9
20260902195338 25 0 0.0 3.2 0.00 0.00 0.00 95 1006.8
20260902195239 25 315 0.0 3.2 0.00 0.00 0.00 95 1007.0
20260902195138 25 180 0.0 3.2 0.00 0.00 0.00 95 1006.9
20260902195038 25 0 0.0 3.2 0.00 0.00 0.00 95 1006.9
20260902194938 25 180 0.0 3.2 0.00 0.00 0.00 95 1006.8
20260902194838 25 180 0.0 3.2 0.00 0.00 0.00 95 1006.8
20260902194739 25 180 0.0 3.2 0.00 0.00 0.00 95 1006.8
20260902194639 25 0 0.0 3.2 0.00 0.00 0.00 95 1007.1
20260902194538 25 225 0.0 3.2 0.00 0.00 0.00 95 1006.8
20260902194438 25 225 0.0 3.2 0.00 0.00 0.00 95 1006.9
20260902194339 25 0 0.0 3.2 0.00 0.00 0.00 95 1006.9
20260902194238 25 180 0.0 3.2 0.00 0.00 0.00 95 1007.0
20260902194138 25 180 0.0 3.2 0.00 0.00 0.00 95 1006.8
20260902194038 25 0 0.0 3.2 0.00 0.00 0.00 95 1006.9
20260902193938 25 0 0.0 4.8 0.00 0.00 0.00 95 1007.0
20260902193839 25 0 0.0 4.8 0.00 0.00 0.00 95 1006.9
20260902193738 25 180 0.0 4.8 0.00 0.00 0.00 95 1006.8
20260902193638 25 225 0.0 4.8 0.00 0.00 0.00 95 1006.7
20260902193538 25 180 0.0 4.8 0.00 0.00 0.00 95 1006.8
20260902193438 25 180 0.0 4.8 0.00 0.00 0.00 95 1006.7
20260902193339 25 225 0.0 4.8 0.00 0.00 0.00 95 1007.0
20260902193239 25 0 0.0 4.8 0.00 0.00 0.00 95 1006.9
20260902193138 25 270 1.6 4.8 0.00 0.00 0.00 95 1006.9
20260902193038 25 0 0.0 4.8 0.00 0.00 0.00 95 1006.8
20260902192938 25 0 0.0 4.8 0.00 0.00 0.00 95 1006.8
20260902192839 25 0 0.0 4.8 0.00 0.00 0.00 95 1006.9
20260902192739 25 0 0.0 4.8 0.00 0.00 0.00 95 1006.9
20260902192639 25 225 0.0 4.8 0.00 0.00 0.00 95 1006.9
20260902192538 25 180 0.0 4.8 0.00 0.00 0.00 95 1006.8
20260902192439 25 180 1.6 4.8 0.00 0.00 0.00 95 1007.0
20260902192339 25 180 0.0 3.2 0.00 0.00 0.00 95 1006.9
20260902192239 25 0 0.0 1.6 0.00 0.00 0.00 95 1006.9
20260902192139 25 180 0.0 1.6 0.00 0.00 0.00 95 1006.8
20260902192038 25 45 0.0 3.2 0.00 0.00 0.00 95 1006.8
20260902191939 25 270 0.0 4.8 0.00 0.00 0.00 95 1006.8
20260902191839 25 0 0.0 4.8 0.00 0.00 0.00 95 1006.8
20260902191739 25 0 0.0 4.8 0.00 0.00 0.00 95 1006.9
20260902191538 25 0 0.0 4.8 0.00 0.00 0.00 95 1006.9
20260902191439 25 0 0.0 4.8 0.00 0.00 0.00 95 1006.8
20260902191339 25 0 0.0 4.8 0.00 0.00 0.00 95 1006.8
20260902191239 25 0 0.0 4.8 0.00 0.00 0.00 95 1006.9
20260902191138 25 270 0.0 4.8 0.00 0.00 0.00 95 1006.8
20260902191038 25 315 0.0 4.8 0.00 0.00 0.00 95 1006.8
20260902190939 25 0 0.0 1.6 0.00 0.00 0.00 95 1006.8
20260902190839 25 225 0.0 1.6 0.00 0.00 0.00 95 1006.9
20260902190738 25 0 0.0 1.6 0.00 0.00 0.00 95 1006.9
20260902190638 25 0 0.0 1.6 0.00 0.00 0.00 95 1006.9
20260902190538 25 0 0.0 1.6 0.00 0.00 0.00 95 1006.8
20260902190439 25 0 0.0 1.6 0.00 0.00 0.00 95 1006.8
20260902190339 25 0 0.0 1.6 0.00 0.00 0.00 95 1006.8
20260902190238 25 225 0.0 1.6 0.00 0.00 0.00 95 1006.7
20260902190138 25 0 0.0 1.6 0.00 0.00 0.00 95 1006.6
20260902190038 25 0 0.0 1.6 0.00 0.00 0.00 95 1006.8
20260902185938 25 0 0.0 1.6 0.00 0.00 0.00 95 1006.8
20260902185838 25 0 0.0 1.6 0.00 0.00 0.00 95 1006.8
20260902185738 25 225 0.0 1.6 0.00 0.00 0.00 95 1006.7
20260902185638 25 225 0.0 1.6 0.00 0.00 0.00 95 1006.7
20260902185538 25 225 0.0 1.6 0.00 0.00 0.00 95 1006.7
20260902185438 25 0 0.0 1.6 0.00 0.00 0.00 95 1006.6
20260902185338 25 0 0.0 1.6 0.00 0.00 0.00 95 1006.6
20260902185238 24 0 0.0 3.2 0.00 0.00 0.00 95 1006.6
20260902185138 24 180 0.0 3.2 0.00 0.00 0.00 95 1006.6
20260902185038 24 315 0.0 3.2 0.00 0.00 0.00 95 1006.8
20260902184938 24 180 0.0 3.2 0.00 0.00 0.00 95 1006.6
20260902184838 24 0 0.0 3.2 0.00 0.00 0.00 95 1006.7
20260902184738 24 270 0.0 3.2 0.00 0.00 0.00 95 1006.7
20260902184638 24 180 0.0 3.2 0.00 0.00 0.00 95 1006.6
20260902184538 24 0 0.0 3.2 0.00 0.00 0.00 95 1006.6
20260902184438 24 180 0.0 3.2 0.00 0.00 0.00 95 1006.6
20260902184338 24 315 0.0 3.2 0.00 0.00 0.00 95 1006.6
20260902184238 24 0 0.0 3.2 0.00 0.00 0.00 95 1006.7
20260902184138 24 0 0.0 3.2 0.00 0.00 0.00 95 1006.6
20260902184038 24 0 0.0 3.2 0.00 0.00 0.00 95 1006.6
20260902183938 24 225 0.0 3.2 0.00 0.00 0.00 95 1006.7
20260902183838 24 0 0.0 3.2 0.00 0.00 0.00 95 1006.6
20260902183738 24 0 0.0 3.2 0.00 0.00 0.00 95 1006.7
20260902183638 24 315 0.0 3.2 0.00 0.00 0.00 95 1006.6
20260902183538 24 225 0.0 3.2 0.00 0.00 0.00 95 1006.6
20260902183438 24 315 0.0 1.6 0.00 0.00 0.00 95 1006.7
20260902183338 24 0 0.0 1.6 0.00 0.00 0.00 95 1006.7
20260902183238 24 0 0.0 3.2 0.00 0.00 0.00 95 1006.7
20260902183138 24 0 0.0 3.2 0.00 0.00 0.00 95 1006.6
20260902183038 24 0 0.0 3.2 0.00 0.00 0.00 95 1006.6
20260902182938 24 0 0.0 3.2 0.00 0.00 0.00 95 1006.5
20260902182838 24 0 0.0 3.2 0.00 0.00 0.00 95 1006.6
20260902182738 24 0 0.0 3.2 0.00 0.00 0.00 95 1006.5
20260902182638 24 180 0.0 3.2 0.00 0.00 0.00 95 1006.7
20260902182538 24 225 0.0 3.2 0.00 0.00 0.00 95 1006.6
20260902182338 24 315 0.0 3.2 0.00 0.00 0.00 95 1006.7
20260902182238 24 0 0.0 3.2 0.00 0.00 0.00 95 1006.6
20260902182138 24 315 0.0 3.2 0.00 0.00 0.00 95 1006.7
20260902182038 24 180 0.0 3.2 0.00 0.00 0.00 95 1006.6
20260902181938 24 0 0.0 4.8 0.00 0.00 0.00 95 1006.7
20260902181838 24 180 0.0 4.8 0.00 0.00 0.00 95 1006.7
20260902181738 24 0 0.0 4.8 0.00 0.00 0.00 95 1006.8
20260902181638 24 0 0.0 4.8 0.00 0.00 0.00 95 1006.6
20260902181538 24 225 0.0 4.8 0.00 0.00 0.00 95 1006.8
20260902181438 24 0 0.0 4.8 0.00 0.00 0.00 95 1006.8
20260902181338 24 180 0.0 4.8 0.00 0.00 0.00 95 1006.7
20260902181238 24 0 0.0 4.8 0.00 0.00 0.00 95 1006.8
20260902181138 24 0 0.0 4.8 0.00 0.00 0.00 95 1006.9
20260902181038 24 315 0.0 4.8 0.00 0.00 0.00 95 1006.8
20260902180938 24 315 0.0 4.8 0.00 0.00 0.00 95 1006.8
20260902180838 24 0 0.0 4.8 0.00 0.00 0.00 95 1006.8
20260902180738 24 0 0.0 4.8 0.00 0.00 0.00 95 1006.9
20260902180638 24 0 0.0 4.8 0.00 0.00 0.00 95 1006.9
20260902180538 24 0 0.0 4.8 0.00 0.00 0.00 95 1007.0
20260902180438 24 225 0.0 4.8 0.00 0.00 0.00 95 1006.8
20260902180338 24 0 0.0 4.8 0.00 0.00 0.00 95 1006.8
20260902180238 24 0 0.0 4.8 0.00 0.00 0.00 95 1006.8
20260902180138 24 0 0.0 4.8 0.00 0.00 0.00 95 1006.8
20260902180038 24 0 0.0 4.8 0.00 0.00 0.00 95 1006.8
20260902175938 24 315 0.0 4.8 0.00 0.00 0.00 95 1007.0
20260902175838 24 0 0.0 4.8 0.00 0.00 0.00 95 1006.9
20260902175738 24 180 0.0 4.8 0.00 0.00 0.00 95 1007.0
20260902175638 24 0 0.0 4.8 0.00 0.00 0.00 95 1007.0
20260902175538 24 180 0.0 4.8 0.00 0.00 0.00 95 1006.9
20260902175438 24 180 0.0 4.8 0.00 0.00 0.00 95 1007.1
20260902175338 24 180 0.0 4.8 0.00 0.00 0.00 95 1007.1
20260902175238 24 180 0.0 4.8 0.00 0.00 0.00 95 1007.2
20260902175138 24 0 1.6 4.8 0.00 0.00 0.00 95 1007.1
20260902175038 24 315 1.6 4.8 0.00 0.00 0.00 95 1007.0
20260902174938 24 315 1.6 4.8 0.00 0.00 0.00 95 1007.0
20260902174838 24 270 1.6 4.8 0.00 0.00 0.00 95 1007.1
20260902174737 24 270 0.0 4.8 0.00 0.00 0.00 95 1007.2
20260902174638 24 270 0.0 4.8 0.00 0.00 0.00 95 1007.2
20260902174538 24 225 0.0 4.8 0.00 0.00 0.00 95 1007.1
20260902174438 24 180 0.0 4.8 0.00 0.00 0.00 95 1007.3
20260902174338 24 180 0.0 4.8 0.00 0.00 0.00 95 1007.2
20260902174238 24 270 0.0 4.8 0.00 0.00 0.00 95 1007.1
20260902174138 24 225 0.0 4.8 0.00 0.00 0.00 95 1007.1
20260902174038 24 0 0.0 4.8 0.00 0.00 0.00 95 1007.3
20260902173938 24 0 0.0 4.8 0.00 0.00 0.00 95 1007.3
20260902173838 24 270 0.0 6.4 0.00 0.00 0.00 95 1007.2
20260902173738 24 180 0.0 6.4 0.00 0.00 0.00 95 1007.2
20260902173638 24 0 0.0 6.4 0.00 0.00 0.00 95 1007.2
20260902173538 24 45 0.0 6.4 0.00 0.00 0.00 95 1007.2
20260902173438 24 270 1.6 6.4 0.00 0.00 0.00 95 1007.2
20260902173338 24 315 3.2 6.4 0.00 0.00 0.00 95 1007.2
20260902173238 24 45 1.6 6.4 0.00 0.00 0.00 95 1007.3
20260902173138 24 45 0.0 6.4 0.00 0.00 0.00 95 1007.2
20260902173038 24 270 0.0 6.4 0.00 0.00 0.00 95 1007.2
20260902172938 24 315 0.0 6.4 0.00 0.00 0.00 95 1007.4
20260902172838 24 0 0.0 4.8 0.00 0.00 0.00 95 1007.2
20260902172738 24 180 0.0 4.8 0.00 0.00 0.00 95 1007.4
20260902172538 24 180 0.0 4.8 0.00 0.00 0.00 95 1007.3
20260902172438 24 270 0.0 4.8 0.00 0.00 0.00 95 1007.3
20260902172338 24 315 0.0 4.8 0.00 0.00 0.00 95 1007.2
20260902172238 24 180 1.6 4.8 0.00 0.00 0.00 95 1007.3
20260902172138 24 0 1.6 4.8 0.00 0.00 0.00 95 1007.4
20260902172038 24 180 0.0 4.8 0.00 0.00 0.00 95 1007.2
20260902171938 24 180 0.0 4.8 0.00 0.00 0.00 95 1007.3
20260902171838 24 270 0.0 4.8 0.00 0.00 0.00 95 1007.4
20260902171738 24 45 1.6 4.8 0.00 0.00 0.00 95 1007.3
20260902171638 24 225 0.0 4.8 0.00 0.00 0.00 95 1007.4
20260902171537 24 270 0.0 4.8 0.00 0.00 0.00 95 1007.3
20260902171438 24 0 0.0 4.8 0.00 0.00 0.00 95 1007.5
20260902171338 24 0 0.0 6.4 0.00 0.00 0.00 95 1007.3
20260902171238 24 180 0.0 6.4 0.00 0.00 0.00 95 1007.4
20260902171138 24 180 0.0 6.4 0.00 0.00 0.00 95 1007.4
20260902171037 24 270 0.0 6.4 0.00 0.00 0.00 95 1007.4
20260902170938 24 0 1.6 6.4 0.00 0.00 0.00 95 1007.4
20260902170838 24 315 0.0 6.4 0.00 0.00 0.00 95 1007.5
20260902170738 24 315 0.0 6.4 0.00 0.00 0.00 95 1007.4
20260902170638 24 270 0.0 6.4 0.00 0.00 0.00 95 1007.4
20260902170537 24 315 1.6 6.4 0.00 0.00 0.00 95 1007.4
20260902170438 24 315 0.0 6.4 0.00 0.00 0.00 95 1007.4
20260902170338 24 0 0.0 4.8 0.00 0.00 0.00 95 1007.4
20260902170238 24 0 0.0 6.4 0.00 0.00 0.00 95 1007.4
20260902170138 24 315 0.0 6.4 0.00 0.00 0.00 95 1007.5
20260902170037 24 180 0.0 9.7 0.00 0.00 0.00 95 1007.3
20260902165938 24 180 0.0 9.7 0.00 0.00 0.00 95 1007.4
20260902165838 24 270 0.0 9.7 0.00 0.00 0.00 95 1007.4
20260902165738 24 225 1.6 9.7 0.00 0.00 0.00 95 1007.3
20260902165637 24 45 1.6 9.7 0.00 0.00 0.00 95 1007.3
20260902165537 24 0 1.6 9.7 0.00 0.00 0.00 95 1007.4
20260902165438 24 0 1.6 9.7 0.00 0.00 0.00 95 1007.5
20260902165338 24 45 1.6 9.7 0.00 0.00 0.00 95 1007.4
20260902165238 24 45 1.6 9.7 0.00 0.00 0.00 95 1007.3
20260902165137 24 45 3.2 9.7 0.00 0.00 0.00 95 1007.4
20260902165038 24 45 1.6 9.7 0.00 0.00 0.00 95 1007.5
20260902164938 24 45 0.0 6.4 0.00 0.00 0.00 95 1007.4
20260902164838 24 315 1.6 6.4 0.00 0.00 0.00 95 1007.4
20260902164737 24 180 1.6 6.4 0.00 0.00 0.00 95 1007.5
20260902164637 24 315 1.6 6.4 0.00 0.00 0.00 95 1007.6
20260902164538 24 180 1.6 8.0 0.00 0.00 0.00 95 1007.5
20260902164438 24 315 1.6 8.0 0.00 0.00 0.00 95 1007.5
20260902164338 24 45 3.2 8.0 0.00 0.00 0.00 95 1007.5
20260902164237 24 225 1.6 8.0 0.00 0.00 0.00 95 1007.7
20260902164137 24 270 0.0 8.0 0.00 0.00 0.00 95 1007.5
20260902164038 24 180 0.0 8.0 0.00 0.00 0.00 95 1007.7
20260902163937 24 0 8.0 0.0 0.00 0.00 0.00 95 1007.6
20260902163837 24 45 1.6 8.0 0.00 0.00 0.00 95 1007.6
20260902163737 24 180 1.6 8.0 0.00 0.00 0.00 95 1007.5
20260902163638 24 45 1.6 8.0 0.00 0.00 0.00 95 1007.6
20260902163538 24 45 0.0 8.0 0.00 0.00 0.00 95 1007.5
20260902163438 24 45 1.6 8.0 0.00 0.00 0.00 95 1007.7
20260902163337 24 45 0.0 8.0 0.00 0.00 0.00 95 1007.7
20260902163237 24 270 0.0 8.0 0.00 0.00 0.00 95 1007.6
20260902163138 24 180 1.6 8.0 0.00 0.00 0.00 95 1007.5
20260902163038 24 315 3.2 8.0 0.00 0.00 0.00 95 1007.5
20260902162937 24 45 1.6 6.4 0.00 0.00 0.00 95 1007.7
20260902162837 24 45 1.6 6.4 0.00 0.00 0.00 95 1007.8
20260902162737 24 270 1.6 6.4 0.00 0.00 0.00 95 1007.7
20260902162638 24 270 1.6 6.4 0.00 0.00 0.00 95 1007.8
20260902162538 24 180 1.6 6.4 0.00 0.00 0.00 95 1007.8
20260902162437 24 270 0.0 6.4 0.00 0.00 0.00 95 1007.9
20260902162337 24 45 0.0 6.4 0.00 0.00 0.00 95 1007.7
20260902162237 24 0 0.0 6.4 0.00 0.00 0.00 95 1007.8
20260902162138 24 180 0.0 6.4 0.00 0.00 0.00 95 1007.9
20260902162038 24 180 1.6 6.4 0.00 0.00 0.00 95 1007.9
20260902161937 24 270 1.6 6.4 0.00 0.00 0.00 95 1008.0
20260902161837 24 270 0.0 8.0 0.00 0.00 0.00 95 1008.0
20260902161737 24 180 0.0 8.0 0.00 0.00 0.00 95 1007.9
20260902161638 24 180 0.0 8.0 0.00 0.00 0.00 95 1008.0
20260902161537 24 180 0.0 8.0 0.00 0.00 0.00 95 1008.0
20260902161437 24 180 0.0 8.0 0.00 0.00 0.00 95 1008.0
20260902161337 24 0 0.0 8.0 0.00 0.00 0.00 95 1008.0
20260902161237 24 315 1.6 8.0 0.00 0.00 0.00 95 1007.9
20260902161137 24 45 1.6 8.0 0.00 0.00 0.00 95 1008.0
20260902161037 24 270 1.6 8.0 0.00 0.00 0.00 95 1008.0
20260902160937 24 45 0.0 8.0 0.00 0.00 0.00 95 1008.0
20260902160837 24 0 0.0 4.8 0.00 0.00 0.00 95 1008.0
20260902160737 24 180 0.0 4.8 0.00 0.00 0.00 95 1008.0
20260902160637 24 180 0.0 4.8 0.00 0.00 0.00 95 1008.0
20260902160537 24 270 0.0 4.8 0.00 0.00 0.00 95 1008.1
20260902160437 24 180 0.0 4.8 0.00 0.00 0.00 95 1008.1
20260902160337 24 180 0.0 4.8 0.00 0.00 0.00 95 1008.0
20260902160237 24 45 0.0 4.8 0.00 0.00 0.00 95 1008.1
20260902160138 24 0 0.0 4.8 0.00 0.00 0.00 95 1008.0
20260902160037 24 315 0.0 4.8 0.00 0.00 0.00 95 1008.0
20260902155937 24 180 1.6 4.8 0.00 0.00 0.00 95 1008.0
20260902155837 24 270 0.0 4.8 0.00 0.00 0.00 95 1008.1
20260902155737 24 315 0.0 4.8 0.00 0.00 0.00 95 1008.0
20260902155637 24 45 0.0 4.8 0.00 0.00 0.00 95 1008.1
20260902155537 24 0 0.0 4.8 0.00 0.00 0.00 95 1007.9
20260902155437 24 270 0.0 4.8 0.00 0.00 0.00 95 1008.0
20260902155337 24 315 1.6 4.8 0.00 0.00 0.00 95 1008.0
20260902155237 24 45 1.6 4.8 0.00 0.00 0.00 95 1008.0
20260902155137 24 270 1.6 4.8 0.00 0.00 0.00 95 1008.1
20260902155037 24 45 0.0 4.8 0.00 0.00 0.00 95 1008.0
20260902154937 24 270 0.0 4.8 0.00 0.00 0.00 95 1008.1
20260902154837 24 180 0.0 4.8 0.00 0.00 0.00 95 1008.0
20260902154737 24 45 0.0 4.8 0.00 0.00 0.00 95 1008.0
20260902154637 24 270 0.0 4.8 0.00 0.00 0.00 95 1008.2
20260902154537 24 45 1.6 4.8 0.00 0.00 0.00 95 1008.1
20260902154437 24 270 0.0 4.8 0.00 0.00 0.00 95 1008.1
20260902154337 24 0 0.0 4.8 0.00 0.00 0.00 95 1008.0
20260902154237 24 225 0.0 4.8 0.00 0.00 0.00 95 1008.0
20260902154137 24 180 0.0 3.2 0.00 0.00 0.00 95 1008.0
20260902154037 24 225 0.0 3.2 0.00 0.00 0.00 95 1008.1
20260902153937 24 225 0.0 3.2 0.00 0.00 0.00 95 1008.0
20260902153837 24 0 0.0 3.2 0.00 0.00 0.00 95 1008.1
20260902153737 24 0 0.0 4.8 0.00 0.00 0.00 95 1008.0
20260902153638 24 225 0.0 4.8 0.00 0.00 0.00 95 1008.0
20260902153537 24 0 0.0 4.8 0.00 0.00 0.00 95 1007.9
20260902153437 24 0 0.0 4.8 0.00 0.00 0.00 95 1008.0
20260902153337 24 180 0.0 4.8 0.00 0.00 0.00 95 1008.1
20260902153237 24 225 0.0 4.8 0.00 0.00 0.00 95 1007.9
20260902153137 24 315 0.0 4.8 0.00 0.00 0.00 95 1008.0
20260902153038 24 270 0.0 4.8 0.00 0.00 0.00 95 1007.9
20260902152937 24 45 1.6 4.8 0.00 0.00 0.00 95 1008.0
20260902152837 24 45 0.0 4.8 0.00 0.00 0.00 95 1008.0
20260902152737 24 45 0.0 4.8 0.00 0.00 0.00 95 1008.0
20260902152637 24 270 0.0 4.8 0.00 0.00 0.00 95 1008.1
20260902152538 24 0 0.0 4.8 0.00 0.00 0.00 95 1008.0
20260902152438 24 225 0.0 4.8 0.00 0.00 0.00 95 1007.9
20260902152337 24 180 0.0 4.8 0.00 0.00 0.00 95 1008.0
20260902152237 23 45 0.0 4.8 0.00 0.00 0.00 95 1007.9
20260902152137 24 180 0.0 4.8 0.00 0.00 0.00 95 1008.0
20260902152038 24 315 0.0 3.2 0.00 0.00 0.00 95 1007.9
20260902151938 23 0 0.0 3.2 0.00 0.00 0.00 95 1007.9
20260902151837 23 180 0.0 3.2 0.00 0.00 0.00 95 1008.0
20260902151737 23 180 0.0 3.2 0.00 0.00 0.00 95 1008.0
20260902151637 23 180 0.0 3.2 0.00 0.00 0.00 95 1008.0
20260902151538 23 315 0.0 3.2 0.00 0.00 0.00 95 1007.9
20260902151437 23 225 0.0 3.2 0.00 0.00 0.00 95 1007.9
20260902151337 23 270 0.0 3.2 0.00 0.00 0.00 95 1008.0
20260902151237 -17 81 24.1 0.0 0.00 0.00 0.00
20260902151137 23 225 0.0 3.2 0.00 0.00 0.00 95 1008.0
20260902151038 23 0 0.0 3.2 0.00 0.00 0.00 95 1007.9
20260902150937 23 0 0.0 3.2 0.00 0.00 0.00 95 1007.8
20260902150837 23 0 0.0 3.2 0.00 0.00 0.00 95 1008.0
20260902150737 23 225 0.0 3.2 0.00 0.00 0.00 95 1007.8
20260902150637 23 0 0.0 3.2 0.00 0.00 0.00 95 1007.9
20260902150537 23 225 0.0 3.2 0.00 0.00 0.00 95 1007.7
20260902150437 23 0 0.0 3.2 0.00 0.00 0.00 95 1007.8
20260902150337 23 0 0.0 3.2 0.00 0.00 0.00 95 1007.8
20260902150237 23 0 0.0 3.2 0.00 0.00 0.00 95 1007.9
20260902150137 23 225 0.0 3.2 0.00 0.00 0.00 95 1007.9
20260902150037 23 225 0.0 4.8 0.00 0.00 0.00 95 1007.8
20260902145938 23 45 0.0 4.8 0.00 0.00 0.00 95 1007.9
20260902145837 23 0 0.0 4.8 0.00 0.00 0.00 95 1007.9
20260902145737 23 225 0.0 4.8 0.00 0.00 0.00 95 1008.0
20260902145637 23 0 0.0 4.8 0.00 0.00 0.00 95 1007.9
20260902145537 23 225 0.0 4.8 0.00 0.00 0.00 95 1007.9
20260902145437 23 315 0.0 4.8 0.00 0.00 0.00 95 1007.9
20260902145337 23 0 0.0 4.8 0.00 0.00 0.00 95 1007.9
20260902145237 23 180 0.0 4.8 0.00 0.00 0.00 95 1007.9
20260902145137 23 270 1.6 4.8 0.00 0.00 0.00 95 1008.0
20260902145037 23 270 0.0 4.8 0.00 0.00 0.00 95 1008.0
20260902144937 23 45 0.0 3.2 0.00 0.00 0.00 95 1008.0
20260902144837 23 225 0.0 3.2 0.00 0.00 0.00 95 1008.1
20260902144737 23 0 0.0 3.2 0.00 0.00 0.00 95 1008.0
20260902144637 23 0 0.0 3.2 0.00 0.00 0.00 95 1008.1
20260902144537 24 315 0.0 4.8 0.00 0.00 0.00 95 1007.9
20260902144437 24 180 0.0 4.8 0.00 0.00 0.00 95 1008.1
20260902144337 23 180 0.0 4.8 0.00 0.00 0.00 95 1008.0
20260902144237 23 0 0.0 4.8 0.00 0.00 0.00 94 1007.9
20260902144137 24 225 0.0 4.8 0.00 0.00 0.00 94 1008.1
20260902144037 24 0 0.0 4.8 0.00 0.00 0.00 94 1008.0
20260902143937 24 225 0.0 4.8 0.00 0.00 0.00 94 1008.0
20260902143837 24 225 0.0 4.8 0.00 0.00 0.00 94 1008.0
20260902143737 24 315 0.0 4.8 0.00 0.00 0.00 94 1008.1
20260902143537 24 315 1.6 4.8 0.00 0.00 0.00 94 1008.1
20260902143437 24 45 0.0 4.8 0.00 0.00 0.00 94 1008.2
20260902143337 24 270 0.0 4.8 0.00 0.00 0.00 94 1008.2
20260902143236 24 1 4.8 0.0 0.00 0.00 0.00 94 1008.2
20260902143137 24 45 1.6 4.8 0.00 0.00 0.00 94 1008.3
20260902143037 24 180 0.0 4.8 0.00 0.00 0.00 94 1008.3
20260902142937 24 315 0.0 4.8 0.00 0.00 0.00 94 1008.1
20260902142837 24 45 1.6 4.8 0.00 0.00 0.00 94 1008.2
20260902142737 24 315 0.0 8.0 0.00 0.00 0.00 94 1008.1
20260902142637 24 180 0.0 8.0 0.00 0.00 0.00 94 1008.3
20260902142537 24 0 0.0 8.0 0.00 0.00 0.00 94 1008.1
20260902142437 24 180 0.0 8.0 0.00 0.00 0.00 94 1008.3
20260902142337 24 180 0.0 8.0 0.00 0.00 0.00 94 1008.2
20260902142237 24 45 0.0 8.0 0.00 0.00 0.00 94 1008.2
20260902142137 23 180 0.0 8.0 0.00 0.00 0.00 94 1008.3
20260902142037 23 315 0.0 8.0 0.00 0.00 0.00 94 1008.2
20260902141937 24 180 1.6 8.0 0.00 0.00 0.00 94 1008.3
20260902141837 24 315 3.2 8.0 0.00 0.00 0.00 94 1008.2
20260902141737 24 45 1.6 6.4 0.00 0.00 0.00 94 1008.2
20260902141637 24 45 1.6 6.4 0.00 0.00 0.00 94 1008.2
20260902141537 24 0 1.6 6.4 0.00 0.00 0.00 94 1008.2
20260902141437 24 45 1.6 8.0 0.00 0.00 0.00 94 1008.3
20260902141337 24 0 3.2 8.0 0.00 0.00 0.00 94 1008.1
20260902141237 23 45 0.0 8.0 0.00 0.00 0.00 94 1008.3
20260902141137 23 45 0.0 8.0 0.00 0.00 0.00 94 1008.3
20260902141037 23 315 0.0 8.0 0.00 0.00 0.00 94 1008.5
20260902140937 24 270 0.0 8.0 0.00 0.00 0.00 94 1008.2
20260902140837 24 270 1.6 8.0 0.00 0.00 0.00 94 1008.4
20260902140737 24 45 3.2 8.0 0.00 0.00 0.00 94 1008.5
20260902140637 24 315 3.2 8.0 0.00 0.00 0.00 94 1008.3
20260902140537 24 45 1.6 8.0 0.00 0.00 0.00 94 1008.5
20260902140437 24 180 0.0 6.4 0.00 0.00 0.00 94 1008.4
20260902140337 24 315 1.6 6.4 0.00 0.00 0.00 94 1008.4
20260902140237 24 45 1.6 6.4 0.00 0.00 0.00 94 1008.4
20260902140137 24 45 0.0 6.4 0.00 0.00 0.00 94 1008.3
20260902140037 24 270 0.0 6.4 0.00 0.00 0.00 94 1008.3
20260902135937 23 180 0.0 6.4 0.00 0.00 0.00 94 1008.4
20260902135837 24 180 0.0 6.4 0.00 0.00 0.00 94 1008.5
20260902135737 24 45 0.0 6.4 0.00 0.00 0.00 94 1008.4
20260902135637 24 45 1.6 6.4 0.00 0.00 0.00 94 1008.4
20260902135537 24 180 1.6 6.4 0.00 0.00 0.00 94 1008.3
20260902135437 24 270 0.0 6.4 0.00 0.00 0.00 94 1008.4
20260902135337 24 180 0.0 8.0 0.00 0.00 0.00 94 1008.5
20260902135237 24 270 1.6 8.0 0.00 0.00 0.00 94 1008.4
20260902135137 24 45 1.6 8.0 0.00 0.00 0.00 94 1008.3
20260902135037 24 0 1.6 8.0 0.00 0.00 0.00 94 1008.3
20260902134937 24 270 1.6 8.0 0.00 0.00 0.00 94 1008.3
20260902134737 24 270 0.0 8.0 0.00 0.00 0.00 94 1008.5
20260902134637 24 180 0.0 8.0 0.00 0.00 0.00 94 1008.5
20260902134537 24 180 1.6 8.0 0.00 0.00 0.00 94 1008.5
20260902134437 24 315 3.2 8.0 0.00 0.00 0.00 94 1008.4
20260902134337 24 315 1.6 6.4 0.00 0.00 0.00 94 1008.4
20260902134237 24 270 1.6 6.4 0.00 0.00 0.00 94 1008.4
20260902134136 24 45 0.0 6.4 0.00 0.00 0.00 94 1008.5
20260902134037 24 45 0.0 6.4 0.00 0.00 0.00 94 1008.3
20260902133937 24 45 0.0 6.4 0.00 0.00 0.00 94 1008.5
20260902133837 24 270 0.0 6.4 0.00 0.00 0.00 94 1008.5
20260902133737 24 0 0.0 6.4 0.00 0.00 0.00 94 1008.5
20260902133636 24 0 1.6 6.4 0.00 0.00 0.00 94 1008.5
20260902133537 23 270 1.6 6.4 0.00 0.00 0.00 94 1008.4
20260902133437 24 180 1.6 6.4 0.00 0.00 0.00 94 1008.3
20260902133337 24 315 1.6 6.4 0.00 0.00 0.00 94 1008.5
20260902133237 24 45 1.6 6.4 0.00 0.00 0.00 94 1008.5
20260902133136 24 315 0.0 6.4 0.00 0.00 0.00 94 1008.4
20260902133037 24 315 0.0 6.4 0.00 0.00 0.00 94 1008.4
20260902132937 23 45 1.6 6.4 0.00 0.00 0.00 94 1008.3
20260902132837 23 270 1.6 6.4 0.00 0.00 0.00 94 1008.4
20260902132737 23 45 1.6 6.4 0.00 0.00 0.00 94 1008.4
20260902132636 23 180 1.6 6.4 0.00 0.00 0.00 94 1008.4
20260902132536 23 315 1.6 9.7 0.00 0.00 0.00 94 1008.3
20260902132437 23 315 3.2 9.7 0.00 0.00 0.00 94 1008.4
20260902132337 24 315 1.6 9.7 0.00 0.00 0.00 94 1008.3
20260902132237 23 270 0.0 9.7 0.00 0.00 0.00 94 1008.4
20260902132136 23 180 0.0 9.7 0.00 0.00 0.00 94 1008.3
20260902132036 23 180 0.0 9.7 0.00 0.00 0.00 94 1008.4
20260902131937 23 315 0.0 9.7 0.00 0.00 0.00 94 1008.5
20260902131837 23 45 1.6 9.7 0.00 0.00 0.00 94 1008.4
20260902131737 23 270 3.2 9.7 0.00 0.00 0.00 94 1008.4
20260902131636 24 315 1.6 9.7 0.00 0.00 0.00 94 1008.5
20260902131536 24 270 1.6 9.7 0.00 0.00 0.00 94 1008.5
20260902131437 24 0 3.2 9.7 0.00 0.00 0.00 94 1008.4
20260902131337 24 45 3.2 9.7 0.00 0.00 0.00 94 1008.4
20260902131237 24 45 1.6 9.7 0.00 0.00 0.00 94 1008.5
20260902131136 24 45 0.0 4.8 0.00 0.00 0.00 94 1008.5
20260902131036 24 315 0.0 4.8 0.00 0.00 0.00 94 1008.5
20260902130937 23 315 0.0 4.8 0.00 0.00 0.00 94 1008.4
20260902130837 24 270 0.0 4.8 0.00 0.00 0.00 94 1008.3
20260902130736 24 1 6.4 0.0 0.00 0.00 0.00 94 1008.4
20260902130636 24 0 1.6 6.4 0.00 0.00 0.00 94 1008.5
20260902130536 23 270 1.6 6.4 0.00 0.00 0.00 94 1008.5
20260902130436 24 180 1.6 6.4 0.00 0.00 0.00 94 1008.5
20260902130337 24 315 1.6 9.7 0.00 0.00 0.00 94 1008.4
20260902130237 24 315 0.0 9.7 0.00 0.00 0.00 94 1008.5
20260902130136 24 270 0.0 9.7 0.00 0.00 0.00 94 1008.5
20260902130036 23 0 1.6 9.7 0.00 0.00 0.00 94 1008.4
20260902125936 23 315 3.2 9.7 0.00 0.00 0.00 94 1008.5
20260902125837 23 270 3.2 9.7 0.00 0.00 0.00 94 1008.4
20260902125737 23 270 3.2 9.7 0.00 0.00 0.00 94 1008.4
20260902125636 23 315 3.2 9.7 0.00 0.00 0.00 94 1008.5
20260902125536 23 45 1.6 9.7 0.00 0.00 0.00 94 1008.5
20260902125436 24 270 3.2 9.7 0.00 0.00 0.00 94 1008.4
20260902125336 24 45 1.6 8.0 0.00 0.00 0.00 94 1008.5
20260902125237 24 45 0.0 8.0 0.00 0.00 0.00 94 1008.3
20260902125136 24 180 0.0 8.0 0.00 0.00 0.00 94 1008.4
20260902125036 24 315 1.6 8.0 0.00 0.00 0.00 94 1008.5
20260902124936 24 315 0.0 8.0 0.00 0.00 0.00 94 1008.3
20260902124836 24 315 0.0 8.0 0.00 0.00 0.00 94 1008.3
20260902124737 24 45 1.6 8.0 0.00 0.00 0.00 94 1008.5
20260902124636 24 45 1.6 8.0 0.00 0.00 0.00 94 1008.5
20260902124536 24 315 1.6 6.4 0.00 0.00 0.00 94 1008.3
20260902124436 24 45 1.6 8.0 0.00 0.00 0.00 94 1008.5
20260902124336 24 45 1.6 8.0 0.00 0.00 0.00 94 1008.4
20260902124237 23 270 1.6 8.0 0.00 0.00 0.00 94 1008.3
20260902124136 23 45 0.0 8.0 0.00 0.00 0.00 94 1008.5
20260902124036 23 270 0.0 8.0 0.00 0.00 0.00 94 1008.5
20260902123836 23 45 0.0 8.0 0.00 0.00 0.00 94 1008.3
20260902123737 23 180 1.6 8.0 0.00 0.00 0.00 94 1008.4
20260902123636 23 315 1.6 8.0 0.00 0.00 0.00 94 1008.3
20260902123536 23 180 1.6 8.0 0.00 0.00 0.00 94 1008.3
20260902123436 23 180 3.2 6.4 0.00 0.00 0.00 94 1008.4
20260902123336 23 315 1.6 4.8 0.00 0.00 0.00 94 1008.4
20260902123236 23 45 0.0 4.8 0.00 0.00 0.00 93 1008.2
20260902123136 23 315 1.6 6.4 0.00 0.00 0.00 93 1008.3
20260902123036 23 45 1.6 6.4 0.00 0.00 0.00 93 1008.3
20260902122936 23 45 1.6 6.4 0.00 0.00 0.00 93 1008.3
20260902122836 24 45 1.6 6.4 0.00 0.00 0.00 93 1008.3
20260902122736 24 180 1.6 6.4 0.00 0.00 0.00 93 1008.3
20260902122636 24 270 1.6 6.4 0.00 0.00 0.00 93 1008.4
20260902122536 23 45 1.6 6.4 0.00 0.00 0.00 93 1008.3
20260902122336 24 315 1.6 6.4 0.00 0.00 0.00 93 1008.3
20260902122236 24 315 1.6 6.4 0.00 0.00 0.00 93 1008.3
20260902122136 24 180 1.6 4.8 0.00 0.00 0.00 93 1008.2
20260902122036 24 45 1.6 4.8 0.00 0.00 0.00 93 1008.3
20260902121936 24 0 0.0 4.8 0.00 0.00 0.00 93 1008.1
20260902121836 24 180 0.0 4.8 0.00 0.00 0.00 93 1008.1
20260902121736 24 0 1.6 4.8 0.00 0.00 0.00 93 1008.2
20260902121636 24 180 1.6 6.4 0.00 0.00 0.00 93 1008.2
20260902121536 24 225 1.6 6.4 0.00 0.00 0.00 93 1008.1
20260902121436 24 315 0.0 6.4 0.00 0.00 0.00 93 1008.2
20260902121336 24 225 0.0 6.4 0.00 0.00 0.00 93 1008.2
20260902121236 24 0 0.0 8.0 0.00 0.00 0.00 93 1008.2
20260902121136 24 225 0.0 8.0 0.00 0.00 0.00 93 1008.1
20260902121036 24 0 0.0 8.0 0.00 0.00 0.00 93 1008.1
20260902120936 24 270 0.0 8.0 0.00 0.00 0.00 93 1008.1
20260902120836 24 0 1.6 8.0 0.00 0.00 0.00 93 1008.2
20260902120736 24 180 0.0 8.0 0.00 0.00 0.00 93 1008.2
20260902120636 24 0 0.0 8.0 0.00 0.00 0.00 93 1008.1
20260902120536 24 225 0.0 8.0 0.00 0.00 0.00 93 1008.2
20260902120436 24 45 0.0 8.0 0.00 0.00 0.00 93 1008.1
20260902120336 -17 81 22.5 0.0 0.00 0.00 0.00
20260902120236 24 0 1.6 8.0 0.00 0.00 0.00 93 1008.2
20260902120136 24 225 1.6 8.0 0.00 0.00 0.00 93 1008.0
20260902120036 24 225 0.0 8.0 0.00 0.00 0.00 93 1008.2
20260902115936 24 0 0.0 8.0 0.00 0.00 0.00 93 1008.2
20260902115836 -17 81 22.5 0.0 0.00 0.00 0.00
20260902115736 24 225 0.0 8.0 0.00 0.00 0.00 93 1008.0
20260902115636 24 315 0.0 8.0 0.00 0.00 0.00 93 1008.1
20260902115537 24 315 1.6 8.0 0.00 0.00 0.00 93 1008.0
20260902115436 24 45 1.6 8.0 0.00 0.00 0.00 92 1008.1
20260902115336 24 225 0.0 6.4 0.00 0.00 0.00 92 1008.0
20260902115236 24 315 0.0 6.4 0.00 0.00 0.00 92 1008.2
20260902115136 24 225 0.0 6.4 0.00 0.00 0.00 92 1008.1
20260902115036 24 315 0.0 6.4 0.00 0.00 0.00 92 1008.0
20260902114936 24 225 0.0 6.4 0.00 0.00 0.00 92 1007.9
20260902114836 24 45 0.0 6.4 0.00 0.00 0.00 92 1008.1
20260902114736 24 225 1.6 8.0 0.00 0.00 0.00 92 1008.2
20260902114636 24 225 1.6 8.0 0.00 0.00 0.00 92 1008.1
20260902114536 24 315 1.6 9.7 0.00 0.00 0.00 92 1008.0
20260902114436 24 225 0.0 9.7 0.00 0.00 0.00 92 1007.9
20260902114336 24 45 0.0 9.7 0.00 0.00 0.00 92 1007.9
20260902114236 24 0 1.6 9.7 0.00 0.00 0.00 92 1008.1
20260902114136 24 270 1.6 9.7 0.00 0.00 0.00 92 1008.2
20260902114036 24 315 3.2 9.7 0.00 0.00 0.00 92 1007.9
20260902113936 24 225 1.6 9.7 0.00 0.00 0.00 92 1008.0
20260902113836 24 45 1.6 9.7 0.00 0.00 0.00 92 1008.1
20260902113736 24 315 1.6 9.7 0.00 0.00 0.00 92 1008.0
20260902113636 24 45 3.2 9.7 0.00 0.00 0.00 92 1007.9
20260902113536 24 270 3.2 9.7 0.00 0.00 0.00 92 1008.0
20260902113436 24 225 1.6 9.7 0.00 0.00 0.00 92 1007.9
20260902113336 24 180 0.0 8.0 0.00 0.00 0.00 92 1007.9
20260902113236 24 270 3.2 8.0 0.00 0.00 0.00 92 1007.8
20260902113136 24 45 3.2 8.0 0.00 0.00 0.00 92 1007.9
20260902113036 24 180 1.6 8.0 0.00 0.00 0.00 92 1007.9
20260902112936 24 315 1.6 8.0 0.00 0.00 0.00 92 1008.0
20260902112836 24 0 1.6 6.4 0.00 0.00 0.00 91 1007.9
20260902112736 24 315 3.2 6.4 0.00 0.00 0.00 91 1008.0
20260902112636 24 315 3.2 6.4 0.00 0.00 0.00 91 1007.9
20260902112536 24 45 0.0 8.0 0.00 0.00 0.00 91 1007.8
20260902112436 24 270 0.0 8.0 0.00 0.00 0.00 91 1007.9
20260902112336 24 0 1.6 8.0 0.00 0.00 0.00 91 1007.9
20260902112236 24 270 1.6 8.0 0.00 0.00 0.00 91 1007.7
20260902112136 24 0 1.6 8.0 0.00 0.00 0.00 91 1007.8
20260902112036 24 225 1.6 8.0 0.00 0.00 0.00 91 1007.7
20260902111936 25 45 0.0 8.0 0.00 0.00 0.00 91 1007.8
20260902111836 25 315 1.6 9.7 0.00 0.00 0.00 91 1007.7
20260902111736 25 270 3.2 9.7 0.00 0.00 0.00 91 1007.7
20260902111636 25 315 3.2 9.7 0.00 0.00 0.00 91 1007.6
20260902111536 25 270 1.6 9.7 0.00 0.00 0.00 91 1007.7
20260902111436 25 180 0.0 9.7 0.00 0.00 0.00 91 1007.6
20260902111336 25 0 1.6 9.7 0.00 0.00 0.00 91 1007.7
20260902111236 25 315 0.0 9.7 0.00 0.00 0.00 91 1007.7
20260902111036 25 270 4.8 9.7 0.00 0.00 0.00 91 1007.7
20260902110936 25 315 3.2 9.7 0.00 0.00 0.00 91 1007.7
20260902110836 25 45 0.0 6.4 0.00 0.00 0.00 91 1007.8
20260902110736 25 45 1.6 6.4 0.00 0.00 0.00 91 1007.6
20260902110636 25 45 1.6 8.0 0.00 0.00 0.00 91 1007.7
20260902110536 25 45 1.6 9.7 0.00 0.00 0.00 91 1007.6
20260902110436 25 315 1.6 9.7 0.00 0.00 0.00 90 1007.6
20260902110336 25 270 1.6 9.7 0.00 0.00 0.00 90 1007.6
20260902110236 25 0 1.6 9.7 0.00 0.00 0.00 90 1007.5
20260902110136 25 0 3.2 9.7 0.00 0.00 0.00 90 1007.5
20260902110036 25 45 1.6 9.7 0.00 0.00 0.00 90 1007.6
20260902105936 25 270 0.0 9.7 0.00 0.00 0.00 90 1007.4
20260902105836 25 270 1.6 9.7 0.00 0.00 0.00 90 1007.5
20260902105736 25 180 3.2 9.7 0.00 0.00 0.00 90 1007.5
20260902105636 25 315 3.2 9.7 0.00 0.00 0.00 90 1007.5
20260902105536 25 45 1.6 9.7 0.00 0.00 0.00 90 1007.5
20260902105436 25 180 1.6 9.7 0.00 0.00 0.00 90 1007.6
20260902105336 25 315 0.0 9.7 0.00 0.00 0.00 90 1007.6
20260902105236 25 0 0.0 9.7 0.00 0.00 0.00 90 1007.6
20260902105136 25 45 0.0 9.7 0.00 0.00 0.00 90 1007.5
20260902105036 25 180 1.6 9.7 0.00 0.00 0.00 90 1007.6
20260902104936 25 45 3.2 9.7 0.00 0.00 0.00 90 1007.5
20260902104836 25 315 4.8 11.3 0.00 0.00 0.00 90 1007.7
20260902104636 25 45 3.2 11.3 0.00 0.00 0.00 89 1007.6
20260902104536 25 270 3.2 11.3 0.00 0.00 0.00 89 1007.6
20260902104436 25 45 1.6 11.3 0.00 0.00 0.00 89 1007.6
20260902104336 25 270 1.6 11.3 0.00 0.00 0.00 89 1007.6
20260902104236 25 270 3.2 11.3 0.00 0.00 0.00 89 1007.6
20260902104136 25 270 4.8 11.3 0.00 0.00 0.00 89 1007.6
20260902104036 25 0 4.8 11.3 0.00 0.00 0.00 89 1007.6
20260902103936 25 45 4.8 11.3 0.00 0.00 0.00 89 1007.6
20260902103836 25 270 3.2 9.7 0.00 0.00 0.00 89 1007.6
20260902103736 25 45 3.2 9.7 0.00 0.00 0.00 89 1007.5
20260902103636 25 45 3.2 9.7 0.00 0.00 0.00 89 1007.6
20260902103536 25 45 3.2 9.7 0.00 0.00 0.00 89 1007.5
20260902103436 25 225 3.2 9.7 0.00 0.00 0.00 89 1007.6
20260902103335 -17 76 17.7 0.0 0.00 0.00 0.00
20260902103236 25 270 0.0 9.7 0.00 0.00 0.00 89 1007.5
20260902103136 25 45 1.6 9.7 0.00 0.00 0.00 89 1007.8
20260902103036 25 0 0.0 9.7 0.00 0.00 0.00 89 1007.6
20260902102936 25 180 1.6 9.7 0.00 0.00 0.00 89 1007.5
20260902102836 25 270 1.6 9.7 0.00 0.00 0.00 89 1007.5
20260902102736 25 315 3.2 6.4 0.00 0.00 0.00 89 1007.5
20260902102636 25 0 1.6 8.0 0.00 0.00 0.00 89 1007.5
20260902102536 25 315 1.6 8.0 0.00 0.00 0.00 89 1007.5
20260902102436 25 45 1.6 8.0 0.00 0.00 0.00 89 1007.5
20260902102336 25 180 1.6 8.0 0.00 0.00 0.00 89 1007.6
20260902102235 25 180 1.6 8.0 0.00 0.00 0.00 89 1007.3
20260902102136 25 315 3.2 8.0 0.00 0.00 0.00 89 1007.5
20260902102036 25 0 1.6 8.0 0.00 0.00 0.00 89 1007.4
20260902101935 -17 76 19.3 0.0 0.00 0.00 0.00
20260902101835 25 180 3.2 8.0 0.00 0.00 0.00 89 1007.4
20260902101736 25 270 1.6 9.7 0.00 0.00 0.00 89 1007.5
20260902101636 25 45 1.6 9.7 0.00 0.00 0.00 89 1007.5
20260902101536 25 180 1.6 9.7 0.00 0.00 0.00 89 1007.5
20260902101436 25 45 3.2 9.7 0.00 0.00 0.00 89 1007.5
20260902101336 25 180 3.2 9.7 0.00 0.00 0.00 89 1007.4
20260902101236 25 0 3.2 9.7 0.00 0.00 0.00 89 1007.5
20260902101136 25 45 1.6 9.7 0.00 0.00 0.00 89 1007.4
20260902101036 25 0 1.6 9.7 0.00 0.00 0.00 89 1007.5
20260902100935 25 225 3.2 9.7 0.00 0.00 0.00 88 1007.4
20260902100836 25 315 3.2 9.7 0.00 0.00 0.00 88 1007.4
20260902100736 25 270 3.2 9.7 0.00 0.00 0.00 88 1007.5
20260902100636 25 270 3.2 9.7 0.00 0.00 0.00 88 1007.4
20260902100536 25 45 1.6 9.7 0.00 0.00 0.00 88 1007.5
20260902100436 25 270 0.0 8.0 0.00 0.00 0.00 88 1007.7
20260902100336 25 270 1.6 8.0 0.00 0.00 0.00 88 1007.6
20260902100235 25 225 3.2 8.0 0.00 0.00 0.00 88 1007.5
20260902100136 25 270 1.6 8.0 0.00 0.00 0.00 88 1007.6
20260902100036 25 45 0.0 8.0 0.00 0.00 0.00 88 1007.5
20260902095936 25 315 0.0 8.0 0.00 0.00 0.00 88 1007.5
20260902095836 25 270 0.0 8.0 0.00 0.00 0.00 88 1007.5
20260902095736 25 225 0.0 8.0 0.00 0.00 0.00 88 1007.5
20260902095636 25 315 1.6 8.0 0.00 0.00 0.00 88 1007.4
20260902095536 25 270 1.6 8.0 0.00 0.00 0.00 88 1007.4
20260902095436 25 0 1.6 8.0 0.00 0.00 0.00 88 1007.5
20260902095336 25 180 1.6 8.0 0.00 0.00 0.00 88 1007.4
20260902095236 25 0 0.0 8.0 0.00 0.00 0.00 88 1007.7
20260902095136 25 180 1.6 8.0 0.00 0.00 0.00 88 1007.6
20260902095036 25 180 1.6 8.0 0.00 0.00 0.00 88 1007.5
20260902094936 25 45 1.6 8.0 0.00 0.00 0.00 88 1007.5
20260902094836 25 270 0.0 8.0 0.00 0.00 0.00 88 1007.6
20260902094736 25 180 0.0 8.0 0.00 0.00 0.00 88 1007.4
20260902094636 25 270 1.6 8.0 0.00 0.00 0.00 88 1007.5
20260902094536 25 180 1.6 8.0 0.00 0.00 0.00 88 1007.4
20260902094435 25 0 0.0 6.4 0.00 0.00 0.00 88 1007.4
20260902094336 25 225 0.0 8.0 0.00 0.00 0.00 88 1007.5
20260902094236 25 315 1.6 8.0 0.00 0.00 0.00 88 1007.6
20260902094035 25 225 1.6 8.0 0.00 0.00 0.00 88 1007.4
20260902093935 25 180 1.6 8.0 0.00 0.00 0.00 88 1007.5
20260902093835 25 225 1.6 8.0 0.00 0.00 0.00 88 1007.4
20260902093736 25 0 0.0 8.0 0.00 0.00 0.00 88 1007.5
20260902093636 25 270 1.6 8.0 0.00 0.00 0.00 88 1007.6
20260902093535 25 0 3.2 8.0 0.00 0.00 0.00 88 1007.5
20260902093435 25 270 3.2 8.0 0.00 0.00 0.00 88 1007.5
20260902093336 25 315 3.2 8.0 0.00 0.00 0.00 88 1007.4
20260902093236 25 270 1.6 9.7 0.00 0.00 0.00 88 1007.5
20260902093135 25 45 1.6 9.7 0.00 0.00 0.00 88 1007.5
20260902093035 25 270 1.6 9.7 0.00 0.00 0.00 88 1007.6
20260902092935 25 0 1.6 9.7 0.00 0.00 0.00 88 1007.5
20260902092836 25 270 1.6 9.7 0.00 0.00 0.00 88 1007.5
20260902092735 25 270 1.6 9.7 0.00 0.00 0.00 88 1007.4
20260902092635 25 0 3.2 9.7 0.00 0.00 0.00 88 1007.5
20260902092535 25 315 1.6 9.7 0.00 0.00 0.00 88 1007.5
20260902092436 25 45 1.6 9.7 0.00 0.00 0.00 88 1007.6
20260902092336 25 180 3.2 11.3 0.00 0.00 0.00 88 1007.5
20260902092235 25 270 1.6 11.3 0.00 0.00 0.00 88 1007.6
20260902092135 25 45 1.6 11.3 0.00 0.00 0.00 88 1007.5
20260902092035 25 180 3.2 11.3 0.00 0.00 0.00 88 1007.5
20260902091935 25 180 3.2 11.3 0.00 0.00 0.00 88 1007.6
20260902091835 25 45 4.8 11.3 0.00 0.00 0.00 87 1007.5
20260902091735 25 0 3.2 11.3 0.00 0.00 0.00 87 1007.6
20260902091635 25 270 3.2 11.3 0.00 0.00 0.00 87 1007.6
20260902091536 26 270 4.8 11.3 0.00 0.00 0.00 87 1007.5
20260902091435 26 270 4.8 11.3 0.00 0.00 0.00 87 1007.5
20260902091335 26 180 3.2 8.0 0.00 0.00 0.00 88 1007.5
20260902091235 26 0 1.6 8.0 0.00 0.00 0.00 88 1007.5
20260902091136 26 45 0.0 8.0 0.00 0.00 0.00 87 1007.5
20260902091035 26 180 1.6 8.0 0.00 0.00 0.00 87 1007.3
20260902090935 26 315 3.2 8.0 0.00 0.00 0.00 87 1007.4
20260902090835 26 270 1.6 8.0 0.00 0.00 0.00 87 1007.4
20260902090735 26 270 1.6 8.0 0.00 0.00 0.00 87 1007.4
20260902090635 26 270 1.6 8.0 0.00 0.00 0.00 87 1007.5
20260902090535 26 45 1.6 8.0 0.00 0.00 0.00 87 1007.5
20260902090435 26 45 3.2 8.0 0.00 0.00 0.00 87 1007.3
20260902090335 26 45 3.2 6.4 0.00 0.00 0.00 87 1007.3
20260902090235 26 45 1.6 6.4 0.00 0.00 0.00 87 1007.2
20260902090135 26 270 1.6 6.4 0.00 0.00 0.00 87 1007.3
20260902090035 26 315 0.0 6.4 0.00 0.00 0.00 87 1007.4
20260902085935 26 315 0.0 6.4 0.00 0.00 0.00 87 1007.3
20260902085835 26 45 1.6 6.4 0.00 0.00 0.00 87 1007.3
20260902085735 26 225 1.6 6.4 0.00 0.00 0.00 87 1007.2
20260902085635 26 270 1.6 6.4 0.00 0.00 0.00 87 1007.2
20260902085535 26 45 1.6 6.4 0.00 0.00 0.00 87 1007.3
20260902085435 26 180 1.6 6.4 0.00 0.00 0.00 87 1007.3
20260902085335 26 270 0.0 6.4 0.00 0.00 0.00 87 1007.2
20260902085235 26 270 1.6 6.4 0.00 0.00 0.00 87 1007.3
20260902085135 -17 72 20.9 0.0 0.00 0.00 0.00
20260902085035 26 315 0.0 4.8 0.00 0.00 0.00 87 1007.2
20260902084935 26 225 0.0 6.4 0.00 0.00 0.00 87 1007.2
20260902084835 26 180 1.6 6.4 0.00 0.00 0.00 87 1007.2
20260902084735 26 180 1.6 6.4 0.00 0.00 0.00 87 1007.2
20260902084635 26 0 0.0 11.3 0.00 0.00 0.00 87 1007.2
20260902084535 26 315 0.0 11.3 0.00 0.00 0.00 87 1007.2
20260902084435 26 270 1.6 11.3 0.00 0.00 0.00 87 1007.2
20260902084335 26 270 0.0 11.3 0.00 0.00 0.00 87 1007.3
20260902084235 26 270 0.0 11.3 0.00 0.00 0.00 87 1007.3
20260902084135 26 45 1.6 11.3 0.00 0.00 0.00 87 1007.3
20260902084035 26 270 1.6 11.3 0.00 0.00 0.00 87 1007.2
20260902083935 26 270 1.6 11.3 0.00 0.00 0.00 87 1007.2
20260902083835 26 45 3.2 11.3 0.00 0.00 0.00 87 1007.1
20260902083735 26 270 3.2 11.3 0.00 0.00 0.00 87 1007.1
20260902083635 26 45 3.2 9.7 0.00 0.00 0.00 87 1007.1
20260902083535 26 270 3.2 9.7 0.00 0.00 0.00 87 1007.1
20260902083435 26 45 1.6 14.5 0.00 0.00 0.00 87 1007.1
20260902083235 26 270 1.6 14.5 0.00 0.00 0.00 87 1007.2
20260902083135 26 225 1.6 14.5 0.00 0.00 0.00 87 1007.2
20260902083035 26 270 0.0 14.5 0.00 0.00 0.00 87 1007.2
20260902082935 26 225 3.2 14.5 0.00 0.00 0.00 87 1007.1
20260902082835 26 180 3.2 14.5 0.00 0.00 0.00 87 1007.2
20260902082735 26 45 1.6 14.5 0.00 0.00 0.00 86 1007.1
20260902082635 26 225 4.8 14.5 0.00 0.00 0.00 86 1007.3
20260902082535 26 45 4.8 14.5 0.00 0.00 0.00 86 1007.1
20260902082435 26 225 4.8 9.7 0.00 0.00 0.00 86 1007.1
20260902082335 26 45 4.8 9.7 0.00 0.00 0.00 86 1007.2
20260902082235 26 225 4.8 9.7 0.00 0.00 0.00 86 1007.1
20260902082135 26 45 4.8 9.7 0.00 0.00 0.00 86 1007.3
20260902081935 26 45 1.6 8.0 0.00 0.00 0.00 86 1007.2
20260902081835 26 315 0.0 9.7 0.00 0.00 0.00 86 1007.1
20260902081735 26 45 1.6 9.7 0.00 0.00 0.00 86 1007.1
20260902081635 26 45 1.6 9.7 0.00 0.00 0.00 86 1007.2
20260902081535 26 0 0.0 9.7 0.00 0.00 0.00 85 1007.2
20260902081435 26 0 0.0 9.7 0.00 0.00 0.00 85 1007.2
20260902081335 26 315 0.0 9.7 0.00 0.00 0.00 85 1007.1
20260902081235 26 0 0.0 9.7 0.00 0.00 0.00 85 1007.2
20260902081135 26 0 1.6 9.7 0.00 0.00 0.00 85 1007.2
20260902081035 26 0 3.2 9.7 0.00 0.00 0.00 85 1007.1
20260902080935 26 270 3.2 9.7 0.00 0.00 0.00 85 1007.0
20260902080835 26 270 0.0 9.7 0.00 0.00 0.00 85 1007.0
20260902080735 26 315 0.0 6.4 0.00 0.00 0.00 85 1007.1
20260902080635 26 45 0.0 6.4 0.00 0.00 0.00 85 1007.0
20260902080535 26 315 1.6 6.4 0.00 0.00 0.00 85 1007.0
20260902080435 26 315 3.2 8.0 0.00 0.00 0.00 85 1007.0
20260902080335 26 45 3.2 8.0 0.00 0.00 0.00 85 1007.1
20260902080235 26 45 1.6 8.0 0.00 0.00 0.00 84 1007.0
20260902080135 26 225 0.0 8.0 0.00 0.00 0.00 84 1007.1
20260902080035 26 225 0.0 8.0 0.00 0.00 0.00 84 1007.1
20260902075935 26 0 1.6 8.0 0.00 0.00 0.00 84 1007.0
20260902075835 26 225 1.6 8.0 0.00 0.00 0.00 84 1007.0
20260902075735 26 45 0.0 8.0 0.00 0.00 0.00 84 1007.0
20260902075635 26 270 1.6 8.0 0.00 0.00 0.00 84 1007.2
20260902075535 26 2 8.0 0.0 0.00 0.00 0.00 84 1007.0
20260902075435 26 225 1.6 8.0 0.00 0.00 0.00 84 1007.0
20260902075335 26 315 1.6 4.8 0.00 0.00 0.00 84 1007.0
20260902075235 26 180 0.0 4.8 0.00 0.00 0.00 84 1007.1
20260902075135 27 270 0.0 4.8 0.00 0.00 0.00 84 1007.1
20260902075035 27 0 0.0 6.4 0.00 0.00 0.00 84 1007.0
20260902074935 27 225 0.0 6.4 0.00 0.00 0.00 84 1007.1
20260902074835 27 315 0.0 6.4 0.00 0.00 0.00 83 1007.2
20260902074735 27 0 0.0 6.4 0.00 0.00 0.00 83 1007.0
20260902074635 27 180 0.0 6.4 0.00 0.00 0.00 83 1007.1
20260902074535 27 225 0.0 6.4 0.00 0.00 0.00 83 1007.1
20260902074435 27 225 0.0 6.4 0.00 0.00 0.00 83 1007.1
20260902074335 27 315 0.0 6.4 0.00 0.00 0.00 83 1007.2
20260902074235 27 225 1.6 6.4 0.00 0.00 0.00 83 1007.0
20260902074135 27 270 1.6 6.4 0.00 0.00 0.00 83 1006.9
20260902074035 27 270 1.6 6.4 0.00 0.00 0.00 83 1007.0
20260902073935 27 315 1.6 6.4 0.00 0.00 0.00 83 1007.1
20260902073835 27 180 0.0 6.4 0.00 0.00 0.00 83 1007.0
20260902073735 27 180 1.6 6.4 0.00 0.00 0.00 83 1007.0
20260902073635 27 270 3.2 6.4 0.00 0.00 0.00 83 1007.0
20260902073535 27 45 1.6 6.4 0.00 0.00 0.00 83 1006.9
20260902073435 27 270 0.0 6.4 0.00 0.00 0.00 83 1006.9
20260902073335 27 180 0.0 6.4 0.00 0.00 0.00 83 1007.0
20260902073235 27 315 0.0 6.4 0.00 0.00 0.00 83 1007.0
20260902073135 27 45 1.6 9.7 0.00 0.00 0.00 83 1007.1
20260902073035 27 315 1.6 9.7 0.00 0.00 0.00 83 1007.1
20260902072935 27 270 1.6 9.7 0.00 0.00 0.00 83 1006.9
20260902072735 27 180 1.6 9.7 0.00 0.00 0.00 83 1006.9
20260902072635 27 0 1.6 9.7 0.00 0.00 0.00 83 1006.9
20260902072535 27 315 0.0 9.7 0.00 0.00 0.00 83 1007.0
20260902072435 27 0 0.0 9.7 0.00 0.00 0.00 83 1007.2
20260902072335 27 315 1.6 9.7 0.00 0.00 0.00 83 1007.2
20260902072235 27 180 1.6 9.7 0.00 0.00 0.00 83 1007.1
20260902072135 27 0 1.6 8.0 0.00 0.00 0.00 83 1007.1
20260902072035 27 45 1.6 8.0 0.00 0.00 0.00 83 1007.1
20260902071935 27 45 1.6 8.0 0.00 0.00 0.00 83 1007.2
20260902071835 27 45 1.6 6.4 0.00 0.00 0.00 82 1007.2
20260902071735 27 315 1.6 6.4 0.00 0.00 0.00 83 1007.2
20260902071635 27 45 1.6 6.4 0.00 0.00 0.00 82 1007.2
20260902071535 27 315 1.6 6.4 0.00 0.00 0.00 82 1007.3
20260902071435 27 45 1.6 4.8 0.00 0.00 0.00 82 1007.3
20260902071335 27 315 0.0 4.8 0.00 0.00 0.00 82 1007.3
20260902071235 27 180 0.0 4.8 0.00 0.00 0.00 82 1007.1
20260902071135 27 180 0.0 4.8 0.00 0.00 0.00 82 1007.2
20260902071035 27 270 0.0 4.8 0.00 0.00 0.00 82 1007.3
20260902070935 27 180 0.0 9.7 0.00 0.00 0.00 82 1007.3
20260902070835 27 0 0.0 9.7 0.00 0.00 0.00 82 1007.3
20260902070735 27 270 1.6 9.7 0.00 0.00 0.00 82 1007.2
20260902070635 27 270 1.6 9.7 0.00 0.00 0.00 82 1007.3
20260902070535 27 270 1.6 9.7 0.00 0.00 0.00 81 1007.2
20260902070435 27 225 1.6 9.7 0.00 0.00 0.00 81 1007.1
20260902070335 27 45 1.6 9.7 0.00 0.00 0.00 81 1007.2
20260902070235 27 0 1.6 9.7 0.00 0.00 0.00 81 1007.0
20260902070135 27 315 3.2 9.7 0.00 0.00 0.00 80 1007.1
20260902070035 28 315 4.8 9.7 0.00 0.00 0.00 80 1007.1
20260902065935 28 315 3.2 8.0 0.00 0.00 0.00 80 1007.1
20260902065835 28 45 1.6 8.0 0.00 0.00 0.00 80 1007.2
20260902065735 28 180 0.0 4.8 0.00 0.00 0.00 81 1007.2
20260902065635 28 0 0.0 4.8 0.00 0.00 0.00 81 1007.2
20260902065535 28 180 1.6 4.8 0.00 0.00 0.00 81 1007.2
20260902065435 28 270 0.0 4.8 0.00 0.00 0.00 81 1007.3
20260902065234 28 180 0.0 4.8 0.00 0.00 0.00 81 1007.2
20260902065135 28 315 0.0 4.8 0.00 0.00 0.00 81 1007.0
20260902065035 28 45 0.0 9.7 0.00 0.00 0.00 82 1007.2
20260902064935 27 180 0.0 9.7 0.00 0.00 0.00 82 1007.2
20260902064834 27 180 1.6 9.7 0.00 0.00 0.00 82 1007.3
20260902064735 27 270 1.6 9.7 0.00 0.00 0.00 82 1007.2
20260902064635 27 45 0.0 9.7 0.00 0.00 0.00 82 1007.1
20260902064535 27 0 0.0 9.7 0.00 0.00 0.00 82 1007.1
20260902064434 27 270 0.0 9.7 0.00 0.00 0.00 83 1007.3
20260902064335 27 180 0.0 9.7 0.00 0.00 0.00 83 1007.2
20260902064235 27 180 1.6 9.7 0.00 0.00 0.00 83 1007.2
20260902064134 27 180 1.6 9.7 0.00 0.00 0.00 83 1007.2
20260902064034 27 0 0.0 6.4 0.00 0.00 0.00 83 1007.2
20260902063935 27 180 0.0 8.0 0.00 0.00 0.00 83 1007.2
20260902063835 27 270 0.0 9.7 0.00 0.00 0.00 83 1007.3
20260902063734 27 180 1.6 9.7 0.00 0.00 0.00 83 1007.3
20260902063634 27 315 1.6 9.7 0.00 0.00 0.00 83 1007.3
20260902063535 27 45 1.6 9.7 0.00 0.00 0.00 83 1007.3
20260902063435 27 180 0.0 9.7 0.00 0.00 0.00 83 1007.4
20260902063335 27 45 1.6 9.7 0.00 0.00 0.00 83 1007.2
20260902063234 27 45 3.2 9.7 0.00 0.00 0.00 83 1007.4
20260902063135 27 315 3.2 9.7 0.00 0.00 0.00 83 1007.5
20260902063035 27 45 4.8 9.7 0.00 0.00 0.00 83 1007.4
20260902062934 27 45 3.2 9.7 0.00 0.00 0.00 83 1007.5
20260902062834 27 270 3.2 8.0 0.00 0.00 0.00 83 1007.6
20260902062735 27 45 1.6 6.4 0.00 0.00 0.00 83 1007.5
20260902062635 27 180 0.0 6.4 0.00 0.00 0.00 83 1007.5
20260902062534 27 270 0.0 6.4 0.00 0.00 0.00 83 1007.5
20260902062434 27 45 1.6 6.4 0.00 0.00 0.00 83 1007.5
20260902062335 27 45 3.2 6.4 0.00 0.00 0.00 83 1007.5
20260902062235 27 45 3.2 6.4 0.00 0.00 0.00 83 1007.6
20260902062134 27 45 1.6 6.4 0.00 0.00 0.00 83 1007.5
20260902062034 27 270 0.0 6.4 0.00 0.00 0.00 83 1007.5
20260902061935 27 270 0.0 6.4 0.00 0.00 0.00 83 1007.5
20260902061835 27 180 0.0 6.4 0.00 0.00 0.00 83 1007.5
20260902061734 27 315 1.6 6.4 0.00 0.00 0.00 83 1007.5
20260902061634 27 180 3.2 6.4 0.00 0.00 0.00 83 1007.5
20260902061535 27 45 3.2 8.0 0.00 0.00 0.00 83 1007.6
20260902061435 27 45 3.2 8.0 0.00 0.00 0.00 83 1007.6
20260902061334 27 45 1.6 8.0 0.00 0.00 0.00 83 1007.5
20260902061234 27 315 3.2 8.0 0.00 0.00 0.00 83 1007.6
20260902061135 27 0 1.6 8.0 0.00 0.00 0.00 83 1007.6
20260902061035 27 45 0.0 8.0 0.00 0.00 0.00 83 1007.7
20260902060934 26 270 1.6 8.0 0.00 0.00 0.00 83 1007.6
20260902060835 26 180 1.6 8.0 0.00 0.00 0.00 83 1007.7
20260902060734 26 45 3.2 8.0 0.00 0.00 0.00 83 1007.7
20260902060635 27 180 3.2 9.7 0.00 0.00 0.00 83 1007.7
20260902060534 27 45 0.0 9.7 0.00 0.00 0.00 83 1007.9
20260902060334 26 0 0.0 9.7 0.00 0.00 0.00 83 1007.8
20260902060235 26 45 1.6 9.7 0.00 0.00 0.00 83 1007.7
20260902060134 26 315 1.6 9.7 0.00 0.00 0.00 83 1007.8
20260902060034 27 270 1.6 9.7 0.00 0.00 0.00 83 1007.8
20260902055934 27 225 3.2 9.7 0.00 0.00 0.00 83 1007.8
20260902055835 27 45 3.2 9.7 0.00 0.00 0.00 83 1007.7
20260902055734 27 45 3.2 9.7 0.00 0.00 0.00 82 1007.7
20260902055634 27 45 1.6 8.0 0.00 0.00 0.00 83 1007.8
20260902055534 27 45 3.2 8.0 0.00 0.00 0.00 82 1007.8
20260902055435 27 45 3.2 9.7 0.00 0.00 0.00 82 1007.6
20260902055334 27 270 3.2 9.7 0.00 0.00 0.00 83 1007.8
20260902055234 27 45 1.6 9.7 0.00 0.00 0.00 83 1007.8
20260902055134 27 315 0.0 9.7 0.00 0.00 0.00 83 1007.7
20260902055034 27 225 1.6 9.7 0.00 0.00 0.00 83 1007.7
20260902054934 27 45 3.2 9.7 0.00 0.00 0.00 83 1007.7
20260902054834 26 270 0.0 9.7 0.00 0.00 0.00 83 1007.7
20260902054734 -17 77 17.7 0.0 0.00 0.00 0.00
20260902054634 26 225 1.6 9.7 0.00 0.00 0.00 82 1007.7
20260902054535 26 315 3.2 9.7 0.00 0.00 0.00 83 1007.7
20260902054434 26 225 1.6 9.7 0.00 0.00 0.00 83 1007.7
20260902054334 26 45 0.0 6.4 0.00 0.00 0.00 83 1007.9
20260902054234 26 0 1.6 6.4 0.00 0.00 0.00 83 1007.8
20260902054135 26 270 0.0 4.8 0.00 0.00 0.00 83 1007.7
20260902054034 26 180 0.0 4.8 0.00 0.00 0.00 83 1007.9
20260902053934 26 45 0.0 4.8 0.00 0.00 0.00 83 1008.0
20260902053834 26 0 0.0 4.8 0.00 0.00 0.00 83 1007.8
20260902053734 26 270 0.0 4.8 0.00 0.00 0.00 83 1007.9
20260902053634 26 0 0.0 4.8 0.00 0.00 0.00 83 1007.9
20260902053534 26 270 0.0 4.8 0.00 0.00 0.00 82 1007.9
20260902053434 26 180 0.0 4.8 0.00 0.00 0.00 82 1008.0
20260902053334 26 225 0.0 4.8 0.00 0.00 0.00 82 1007.9
20260902053234 27 180 0.0 4.8 0.00 0.00 0.00 82 1008.1
20260902053135 27 225 0.0 4.8 0.00 0.00 0.00 82 1008.0
20260902053034 27 270 0.0 4.8 0.00 0.00 0.00 81 1008.0
20260902052934 27 180 0.0 4.8 0.00 0.00 0.00 81 1008.1
20260902052834 27 270 0.0 4.8 0.00 0.00 0.00 81 1007.9
20260902052734 27 270 0.0 4.8 0.00 0.00 0.00 81 1008.0
20260902052634 27 225 0.0 6.4 0.00 0.00 0.00 81 1008.1
20260902052534 27 180 0.0 6.4 0.00 0.00 0.00 81 1008.0
20260902052434 27 45 1.6 6.4 0.00 0.00 0.00 81 1007.9
20260902052334 27 225 1.6 6.4 0.00 0.00 0.00 80 1008.1
20260902052234 27 225 1.6 6.4 0.00 0.00 0.00 80 1008.1
20260902052134 27 0 3.2 6.4 0.00 0.00 0.00 80 1007.9
20260902052034 27 225 1.6 6.4 0.00 0.00 0.00 80 1007.9
20260902051934 27 225 0.0 8.0 0.00 0.00 0.00 80 1007.8
20260902051834 27 315 1.6 8.0 0.00 0.00 0.00 80 1007.9
20260902051734 27 315 1.6 8.0 0.00 0.00 0.00 81 1008.0
20260902051634 27 0 1.6 8.0 0.00 0.00 0.00 81 1007.9
20260902051534 27 270 0.0 9.7 0.00 0.00 0.00 81 1007.8
20260902051434 27 0 0.0 9.7 0.00 0.00 0.00 81 1007.9
20260902051334 27 180 1.6 9.7 0.00 0.00 0.00 81 1007.9
20260902051234 27 180 3.2 9.7 0.00 0.00 0.00 82 1007.9
20260902051134 27 315 3.2 9.7 0.00 0.00 0.00 82 1007.6
20260902051034 27 315 1.6 9.7 0.00 0.00 0.00 82 1007.8
20260902050934 27 315 1.6 9.7 0.00 0.00 0.00 83 1007.8
20260902050834 27 45 1.6 9.7 0.00 0.00 0.00 83 1007.8
20260902050734 27 45 3.2 9.7 0.00 0.00 0.00 83 1007.6
20260902050634 26 45 3.2 9.7 0.00 0.00 0.00 83 1007.8
20260902050534 26 225 3.2 6.4 0.00 0.00 0.00 83 1007.8
20260902050434 26 225 1.6 6.4 0.00 0.00 0.00 83 1007.9
20260902050334 26 315 1.6 6.4 0.00 0.00 0.00 83 1007.9
20260902050234 26 315 1.6 6.4 0.00 0.00 0.00 83 1008.1
20260902050134 26 0 1.6 6.4 0.00 0.00 0.00 83 1007.9
20260902050034 26 270 1.6 6.4 0.00 0.00 0.00 83 1008.0
20260902045934 26 180 1.6 6.4 0.00 0.00 0.00 83 1008.1
20260902045834 26 315 1.6 6.4 0.00 0.00 0.00 83 1007.9
20260902045734 26 270 1.6 8.0 0.00 0.00 0.00 83 1007.9
20260902045634 26 45 1.6 9.7 0.00 0.00 0.00 83 1008.0
20260902045534 26 270 1.6 9.7 0.00 0.00 0.00 83 1008.1
20260902045434 26 315 1.6 9.7 0.00 0.00 0.00 83 1007.9
20260902045334 26 315 1.6 9.7 0.00 0.00 0.00 83 1008.0
20260902045234 26 315 0.0 9.7 0.00 0.00 0.00 84 1007.9
20260902045134 26 315 0.0 9.7 0.00 0.00 0.00 84 1008.1
20260902045034 26 45 0.0 9.7 0.00 0.00 0.00 84 1007.9
20260902044934 26 315 1.6 9.7 0.00 0.00 0.00 84 1008.0
20260902044834 26 45 3.2 9.7 0.00 0.00 0.00 84 1008.0
20260902044734 26 270 0.0 9.7 0.00 0.00 0.00 84 1008.0
20260902044634 26 45 0.0 6.4 0.00 0.00 0.00 84 1008.1
20260902044535 26 180 0.0 6.4 0.00 0.00 0.00 84 1008.0
20260902044434 26 270 0.0 6.4 0.00 0.00 0.00 84 1008.0
20260902044334 26 0 0.0 6.4 0.00 0.00 0.00 84 1008.1
20260902044234 26 270 0.0 6.4 0.00 0.00 0.00 84 1008.1
20260902044134 26 270 0.0 6.4 0.00 0.00 0.00 84 1008.2
20260902044034 26 180 1.6 6.4 0.00 0.00 0.00 83 1008.2
20260902043934 26 315 1.6 6.4 0.00 0.00 0.00 83 1008.3
20260902043834 26 45 0.0 4.8 0.00 0.00 0.00 83 1008.2
20260902043734 26 270 0.0 4.8 0.00 0.00 0.00 83 1008.2
20260902043635 26 45 0.0 4.8 0.00 0.00 0.00 83 1008.2
20260902043534 26 180 1.6 4.8 0.00 0.00 0.00 83 1008.3
20260902043434 26 225 1.6 4.8 0.00 0.00 0.00 83 1008.3
20260902043334 26 225 0.0 8.0 0.00 0.00 0.00 83 1008.3
20260902043235 26 45 0.0 8.0 0.00 0.00 0.00 83 1008.2
20260902043134 26 0 0.0 8.0 0.00 0.00 0.00 83 1008.3
20260902043034 26 315 1.6 8.0 0.00 0.00 0.00 83 1008.4
20260902042934 26 45 1.6 8.0 0.00 0.00 0.00 83 1008.5
20260902042834 26 225 0.0 8.0 0.00 0.00 0.00 83 1008.3
20260902042734 26 45 1.6 8.0 0.00 0.00 0.00 82 1008.4
20260902042634 26 45 1.6 8.0 0.00 0.00 0.00 82 1008.2
20260902042534 26 315 3.2 8.0 0.00 0.00 0.00 82 1008.2
20260902042434 26 45 3.2 8.0 0.00 0.00 0.00 82 1008.5
20260902042334 26 315 1.6 8.0 0.00 0.00 0.00 81 1008.2
20260902042234 26 270 1.6 8.0 0.00 0.00 0.00 81 1008.4
20260902042134 26 270 3.2 8.0 0.00 0.00 0.00 81 1008.2
20260902042034 26 45 1.6 8.0 0.00 0.00 0.00 81 1008.2
20260902041934 26 45 1.6 8.0 0.00 0.00 0.00 81 1008.2
20260902041834 27 225 3.2 8.0 0.00 0.00 0.00 81 1008.2
20260902041734 27 270 3.2 8.0 0.00 0.00 0.00 80 1008.1
20260902041634 27 315 4.8 8.0 0.00 0.00 0.00 80 1008.2
20260902041534 27 270 4.8 8.0 0.00 0.00 0.00 80 1008.2
20260902041434 27 315 1.6 8.0 0.00 0.00 0.00 81 1008.1
20260902041334 27 45 1.6 6.4 0.00 0.00 0.00 80 1008.1
20260902041234 27 180 1.6 6.4 0.00 0.00 0.00 80 1008.1
20260902041134 27 180 0.0 4.8 0.00 0.00 0.00 80 1008.1
20260902041034 27 315 0.0 6.4 0.00 0.00 0.00 81 1008.1
20260902040934 27 180 0.0 6.4 0.00 0.00 0.00 81 1007.9
20260902040834 27 270 0.0 6.4 0.00 0.00 0.00 81 1008.0
20260902040734 27 315 0.0 6.4 0.00 0.00 0.00 81 1008.0
20260902040634 27 0 0.0 6.4 0.00 0.00 0.00 81 1008.0
20260902040534 27 315 0.0 6.4 0.00 0.00 0.00 81 1008.1
20260902040434 27 315 0.0 6.4 0.00 0.00 0.00 80 1008.2
20260902040334 27 270 0.0 6.4 0.00 0.00 0.00 80 1008.2
20260902040234 27 225 0.0 6.4 0.00 0.00 0.00 80 1008.1
20260902040134 27 180 1.6 6.4 0.00 0.00 0.00 81 1008.2
20260902040034 27 315 1.6 6.4 0.00 0.00 0.00 81 1008.1
20260902035934 27 180 1.6 6.4 0.00 0.00 0.00 81 1008.1
20260902035834 27 45 0.0 6.4 0.00 0.00 0.00 81 1008.2
20260902035734 27 225 0.0 6.4 0.00 0.00 0.00 80 1008.2
20260902035634 27 180 0.0 6.4 0.00 0.00 0.00 80 1008.0
20260902035534 27 45 1.6 6.4 0.00 0.00 0.00 81 1008.1
20260902035434 27 315 1.6 8.0 0.00 0.00 0.00 81 1008.0
20260902035334 27 45 1.6 11.3 0.00 0.00 0.00 81 1008.0
20260902035234 27 270 1.6 11.3 0.00 0.00 0.00 81 1008.1
20260902035134 27 45 1.6 11.3 0.00 0.00 0.00 80 1008.1
20260902035034 27 315 1.6 11.3 0.00 0.00 0.00 80 1008.2
20260902034934 27 270 1.6 11.3 0.00 0.00 0.00 81 1008.1
20260902034834 27 315 1.6 11.3 0.00 0.00 0.00 81 1008.1
20260902034734 27 0 0.0 11.3 0.00 0.00 0.00 81 1008.0
20260902034634 27 180 1.6 11.3 0.00 0.00 0.00 81 1007.9
20260902034534 27 180 4.8 11.3 0.00 0.00 0.00 81 1008.1
20260902034434 27 225 3.2 11.3 0.00 0.00 0.00 81 1007.9
20260902034334 27 0 0.0 8.0 0.00 0.00 0.00 82 1008.1
20260902034234 27 270 3.2 8.0 0.00 0.00 0.00 82 1007.9
20260902034134 26 270 1.6 8.0 0.00 0.00 0.00 82 1008.2
20260902034033 26 270 0.0 8.0 0.00 0.00 0.00 82 1008.0
20260902033934 26 180 1.6 9.7 0.00 0.00 0.00 82 1008.1
20260902033834 26 315 1.6 9.7 0.00 0.00 0.00 82 1008.1
20260902033734 26 315 0.0 9.7 0.00 0.00 0.00 83 1008.1
20260902033634 26 180 1.6 9.7 0.00 0.00 0.00 82 1008.0
20260902033534 26 45 3.2 9.7 0.00 0.00 0.00 82 1008.1
20260902033434 26 270 1.6 9.7 0.00 0.00 0.00 83 1008.0
20260902033334 26 180 0.0 9.7 0.00 0.00 0.00 83 1008.0
20260902033234 26 315 1.6 9.7 0.00 0.00 0.00 82 1008.1
20260902033134 26 315 4.8 9.7 0.00 0.00 0.00 82 1008.2
20260902033034 26 45 4.8 9.7 0.00 0.00 0.00 82 1008.1
20260902032934 26 315 3.2 9.7 0.00 0.00 0.00 82 1008.0
20260902032834 26 180 1.6 9.7 0.00 0.00 0.00 82 1008.0
20260902032734 26 315 1.6 9.7 0.00 0.00 0.00 82 1008.0
20260902032634 26 45 1.6 9.7 0.00 0.00 0.00 82 1008.2
20260902032533 26 45 1.6 9.7 0.00 0.00 0.00 82 1008.0
20260902032434 26 315 3.2 9.7 0.00 0.00 0.00 82 1008.1
20260902032334 26 180 3.2 9.7 0.00 0.00 0.00 82 1008.2
20260902032234 26 315 1.6 9.7 0.00 0.00 0.00 82 1008.2
20260902032133 26 225 0.0 9.7 0.00 0.00 0.00 82 1008.2
20260902032034 26 315 1.6 9.7 0.00 0.00 0.00 82 1008.2
20260902031933 26 1 9.7 0.0 0.00 0.00 0.00 82 1008.3
20260902031833 -17 83 12.9 0.0 0.00 0.00 0.00
20260902031733 26 180 1.6 9.7 0.00 0.00 0.00 81 1008.4
20260902031634 26 315 4.8 9.7 0.00 0.00 0.00 81 1008.2
20260902031534 26 45 3.2 9.7 0.00 0.00 0.00 81 1008.4
20260902031434 26 45 3.2 9.7 0.00 0.00 0.00 82 1008.3
20260902031333 26 270 1.6 9.7 0.00 0.00 0.00 82 1008.4
20260902031234 26 0 0.0 9.7 0.00 0.00 0.00 82 1008.5
20260902031133 26 180 4.8 9.7 0.00 0.00 0.00 81 1008.4
20260902031034 26 45 4.8 9.7 0.00 0.00 0.00 81 1008.5
20260902030933 26 315 3.2 9.7 0.00 0.00 0.00 81 1008.3
20260902030834 26 315 3.2 9.7 0.00 0.00 0.00 81 1008.6
20260902030734 26 45 3.2 9.7 0.00 0.00 0.00 80 1008.5
20260902030634 26 225 3.2 9.7 0.00 0.00 0.00 80 1008.3
20260902030533 26 45 3.2 9.7 0.00 0.00 0.00 80 1008.4
20260902030434 26 45 4.8 9.7 0.00 0.00 0.00 79 1008.4
20260902030333 26 3 9.7 0.0 0.00 0.00 0.00 79 1008.5
20260902030133 27 45 3.2 8.0 0.00 0.00 0.00 79 1008.5
20260902030034 27 315 4.8 8.0 0.00 0.00 0.00 78 1008.6
20260902025934 27 225 1.6 8.0 0.00 0.00 0.00 78 1008.5
20260902025833 27 315 0.0 8.0 0.00 0.00 0.00 78 1008.4
20260902025733 27 225 0.0 8.0 0.00 0.00 0.00 78 1008.3
20260902025634 27 225 1.6 8.0 0.00 0.00 0.00 78 1008.3
20260902025534 27 270 1.6 8.0 0.00 0.00 0.00 78 1008.5
20260902025433 27 45 1.6 9.7 0.00 0.00 0.00 79 1008.2
20260902025334 27 270 1.6 9.7 0.00 0.00 0.00 79 1008.3
20260902025234 27 270 1.6 12.9 0.00 0.00 0.00 80 1008.3
20260902025133 27 270 1.6 12.9 0.00 0.00 0.00 81 1008.2
20260902025033 27 45 1.6 12.9 0.00 0.00 0.00 82 1008.0
20260902024934 27 225 1.6 12.9 0.00 0.00 0.00 82 1007.9
20260902024834 26 315 3.2 12.9 0.00 0.00 0.00 82 1007.8
20260902024733 26 0 3.2 12.9 0.00 0.00 0.00 82 1007.9
20260902024633 26 45 4.8 12.9 0.00 0.00 0.00 82 1008.0
20260902024534 26 270 4.8 12.9 0.00 0.00 0.00 81 1008.0
20260902024434 26 180 4.8 12.9 0.00 0.00 0.00 81 1008.0
20260902024333 26 45 4.8 12.9 0.00 0.00 0.00 81 1008.1
20260902024233 26 315 4.8 9.7 0.00 0.00 0.00 81 1008.2
20260902024134 26 45 3.2 9.7 0.00 0.00 0.00 82 1008.2
20260902024034 26 45 3.2 9.7 0.00 0.00 0.00 82 1008.1
20260902023933 26 45 4.8 9.7 0.00 0.00 0.00 82 1008.1
20260902023833 26 225 3.2 9.7 0.00 0.00 0.00 82 1008.1
20260902023734 26 180 3.2 9.7 0.00 0.00 0.00 82 1008.2
20260902023633 26 0 3.2 9.7 0.00 0.00 0.00 82 1007.9
20260902023533 26 315 4.8 9.7 0.00 0.00 0.00 82 1008.3
20260902023433 26 225 4.8 11.3 0.00 0.00 0.00 82 1008.1
20260902023334 26 315 4.8 11.3 0.00 0.00 0.00 82 1008.1
20260902023233 26 45 3.2 11.3 0.00 0.00 0.00 82 1008.2
20260902023133 26 315 1.6 11.3 0.00 0.00 0.00 82 1008.2
20260902023033 26 315 4.8 11.3 0.00 0.00 0.00 82 1008.3
20260902022934 26 315 4.8 11.3 0.00 0.00 0.00 81 1008.2
20260902022833 26 225 4.8 11.3 0.00 0.00 0.00 81 1008.4
20260902022733 26 45 4.8 11.3 0.00 0.00 0.00 81 1008.3
20260902022633 26 225 4.8 11.3 0.00 0.00 0.00 81 1008.5
20260902022533 26 45 3.2 11.3 0.00 0.00 0.00 81 1008.6
20260902022433 26 270 1.6 9.7 0.00 0.00 0.00 81 1008.4
20260902022333 26 315 1.6 9.7 0.00 0.00 0.00 81 1008.6
20260902022233 26 45 1.6 9.7 0.00 0.00 0.00 81 1008.5
20260902022134 26 45 1.6 9.7 0.00 0.00 0.00 81 1008.5
20260902022034 26 270 3.2 14.5 0.00 0.00 0.00 80 1008.5
20260902021934 26 0 4.8 14.5 0.00 0.00 0.00 80 1008.6
20260902021834 26 45 4.8 14.5 0.00 0.00 0.00 79 1008.6
20260902021734 26 270 3.2 14.5 0.00 0.00 0.00 79 1008.5
20260902021634 26 315 3.2 14.5 0.00 0.00 0.00 80 1008.5
20260902021534 27 45 3.2 14.5 0.00 0.00 0.00 80 1008.6
20260902021434 27 45 3.2 14.5 0.00 0.00 0.00 79 1008.5
20260902021334 27 315 1.6 14.5 0.00 0.00 0.00 79 1008.6
20260902021133 27 45 4.8 14.5 0.00 0.00 0.00 79 1008.4
20260902021034 27 225 4.8 9.7 0.00 0.00 0.00 79 1008.5
20260902020934 27 225 4.8 9.7 0.00 0.00 0.00 80 1008.7
20260902020833 27 225 3.2 9.7 0.00 0.00 0.00 80 1008.4
20260902020733 27 270 3.2 9.7 0.00 0.00 0.00 81 1008.5
20260902020633 26 45 4.8 9.7 0.00 0.00 0.00 81 1008.2
20260902020534 26 45 3.2 9.7 0.00 0.00 0.00 81 1008.4
20260902020433 26 225 3.2 9.7 0.00 0.00 0.00 81 1008.4
20260902020333 26 0 4.8 9.7 0.00 0.00 0.00 81 1008.5
20260902020233 26 0 4.8 9.7 0.00 0.00 0.00 81 1008.3
20260902020133 26 45 4.8 9.7 0.00 0.00 0.00 81 1008.3
20260902020033 26 180 4.8 9.7 0.00 0.00 0.00 81 1008.3
20260902015934 26 225 3.2 9.7 0.00 0.00 0.00 82 1008.5
20260902015833 26 315 3.2 9.7 0.00 0.00 0.00 82 1008.3
20260902015733 26 180 3.2 9.7 0.00 0.00 0.00 82 1008.3
20260902015633 26 45 3.2 9.7 0.00 0.00 0.00 83 1008.3
20260902015533 26 45 3.2 9.7 0.00 0.00 0.00 83 1008.3
20260902015433 26 45 1.6 9.7 0.00 0.00 0.00 83 1008.2
20260902015333 25 180 1.6 8.0 0.00 0.00 0.00 83 1008.3
20260902015233 25 225 1.6 8.0 0.00 0.00 0.00 84 1008.3
20260902015133 25 315 1.6 8.0 0.00 0.00 0.00 84 1008.3
20260902014933 25 180 3.2 9.7 0.00 0.03 0.00 84 1008.3
20260902014833 25 45 3.2 9.7 0.00 0.03 0.00 84 1008.3
20260902014733 25 45 3.2 9.7 0.00 0.03 0.00 84 1008.5
20260902014633 25 270 1.6 9.7 0.00 0.03 0.00 84 1008.5
20260902014533 25 45 1.6 9.7 0.00 0.03 0.00 84 1008.6
20260902014433 25 315 1.6 9.7 0.00 0.03 0.00 84 1008.5
20260902014333 25 270 3.2 9.7 0.00 0.03 0.00 84 1008.5
20260902014233 25 315 3.2 9.7 0.00 0.03 0.00 84 1008.5
20260902014133 25 270 3.2 9.7 0.00 0.03 0.00 84 1008.7
20260902014033 25 45 4.8 9.7 0.00 0.03 0.00 84 1008.6
20260902013933 25 270 3.2 9.7 0.00 0.03 0.00 85 1008.7
20260902013833 25 0 1.6 8.0 0.00 0.03 0.00 85 1008.6
20260902013733 25 45 0.0 8.0 0.00 0.03 0.00 85 1008.6
20260902013633 25 45 0.0 8.0 0.00 0.03 0.00 84 1008.6
20260902013533 25 0 1.6 8.0 0.00 0.03 0.00 84 1008.7
20260902013433 25 225 3.2 8.0 0.00 0.03 0.00 84 1008.7
20260902013333 25 315 3.2 8.0 0.00 0.03 0.00 84 1008.7
20260902013133 25 45 1.6 6.4 0.00 0.03 0.00 84 1008.7
20260902013033 25 45 1.6 6.4 0.00 0.03 0.00 84 1008.8
20260902012933 25 45 1.6 6.4 0.00 0.03 0.00 84 1008.7
20260902012833 25 45 1.6 6.4 0.00 0.03 0.00 84 1008.8
20260902012733 25 45 1.6 6.4 0.00 0.03 0.00 84 1008.8
20260902012633 25 0 1.6 6.4 0.00 0.03 0.00 84 1008.9
20260902012533 25 315 3.2 8.0 0.00 0.03 0.00 84 1008.8
20260902012433 25 225 1.6 8.0 0.00 0.03 0.00 84 1008.8
20260902012333 -17 87 9.7 0.0 0.00 0.00 0.00
20260902012233 25 45 1.6 9.7 0.00 0.03 0.00 84 1008.6
20260902012133 25 270 1.6 9.7 0.00 0.03 0.00 84 1008.7
20260902012033 25 315 3.2 9.7 0.00 0.03 0.00 84 1008.7
20260902011933 25 0 1.6 9.7 0.00 0.03 0.00 84 1008.7
20260902011833 25 270 3.2 9.7 0.00 0.03 0.00 84 1008.9
20260902011733 25 45 3.2 9.7 0.00 0.03 0.00 84 1008.8
20260902011633 25 45 4.8 9.7 0.00 0.03 0.00 84 1008.9
20260902011533 25 315 4.8 9.7 0.00 0.03 0.00 84 1008.7
20260902011433 25 45 4.8 9.7 0.00 0.03 0.00 84 1008.6
20260902011333 25 0 3.2 9.7 0.00 0.03 0.00 83 1008.7
20260902011233 25 45 3.2 9.7 0.00 0.03 0.00 83 1008.8
20260902011133 25 315 1.6 9.7 0.00 0.03 0.00 83 1008.9
20260902011033 25 45 1.6 9.7 0.00 0.03 0.00 83 1008.9
20260902010933 25 315 1.6 9.7 0.00 0.03 0.00 83 1008.8
20260902010833 25 45 3.2 8.0 0.00 0.03 0.00 83 1008.9
20260902010733 25 45 1.6 8.0 0.00 0.03 0.00 83 1008.9
20260902010633 25 45 0.0 6.4 0.00 0.03 0.00 83 1009.0
20260902010533 25 180 0.0 6.4 0.00 0.03 0.00 83 1008.9
20260902010433 25 45 1.6 6.4 0.00 0.03 0.00 83 1008.9
20260902010333 25 45 1.6 9.7 0.00 0.03 0.00 83 1008.8
20260902010233 25 180 1.6 9.7 0.00 0.03 0.00 83 1008.8
20260902010133 25 45 1.6 9.7 0.00 0.03 0.00 83 1008.8
20260902010033 25 0 1.6 9.7 0.00 0.03 0.00 83 1008.8
20260902005933 25 45 0.0 9.7 0.00 0.03 0.00 83 1008.8
20260902005833 25 270 0.0 9.7 0.00 0.03 0.00 83 1008.9
20260902005733 25 0 0.0 9.7 0.00 0.03 0.00 82 1009.0
20260902005633 25 0 1.6 9.7 0.00 0.03 0.00 82 1008.8
20260902005533 25 45 4.8 9.7 0.00 0.03 0.00 82 1008.9
20260902005433 25 315 3.2 9.7 0.00 0.03 0.00 82 1008.8
20260902005333 25 45 0.0 8.0 0.00 0.03 0.00 82 1008.9
20260902005233 25 0 1.6 8.0 0.00 0.03 0.00 82 1008.8
20260902005133 25 180 3.2 8.0 0.00 0.03 0.00 82 1008.8
20260902005033 25 180 1.6 9.7 0.00 0.03 0.00 82 1008.8
20260902004933 25 45 0.0 9.7 0.00 0.03 0.00 82 1009.0
20260902004833 25 180 1.6 9.7 0.00 0.03 0.00 82 1008.7
20260902004733 25 270 3.2 9.7 0.00 0.03 0.00 82 1008.8
20260902004633 25 45 3.2 9.7 0.00 0.03 0.00 82 1008.8
20260902004533 25 45 1.6 9.7 0.00 0.03 0.00 82 1008.7
20260902004433 25 45 0.0 9.7 0.00 0.03 0.00 82 1008.7
20260902004333 25 225 1.6 9.7 0.00 0.03 0.00 82 1008.7
20260902004233 25 0 3.2 9.7 0.00 0.03 0.00 82 1008.6
20260902004133 25 1 9.7 0.0 0.00 0.03 0.00 82 1008.7
20260902004032 -17 86 6.4 0.0 0.00 0.00 0.00
20260902003933 25 315 4.8 9.7 0.00 0.03 0.00 82 1008.7
20260902003833 25 45 3.2 9.7 0.00 0.03 0.00 82 1008.8
20260902003732 25 45 1.6 9.7 0.00 0.03 0.00 82 1008.6
20260902003633 25 315 3.2 9.7 0.00 0.03 0.00 82 1008.7
20260902003533 25 45 4.8 9.7 0.00 0.03 0.00 82 1008.6
20260902003433 25 45 4.8 9.7 0.00 0.03 0.00 81 1008.6
20260902003333 25 270 3.2 11.3 0.00 0.03 0.00 82 1008.5
20260902003233 25 315 3.2 11.3 0.00 0.03 0.00 82 1008.6
20260902003133 25 0 3.2 11.3 0.00 0.03 0.00 82 1008.6
20260902003033 25 315 3.2 11.3 0.00 0.03 0.00 82 1008.6
20260902002933 25 45 3.2 11.3 0.00 0.03 0.00 82 1008.6
20260902002833 25 45 4.8 11.3 0.00 0.03 0.00 82 1008.5
20260902002733 25 225 4.8 11.3 0.00 0.03 0.00 82 1008.5
20260902002633 25 315 3.2 11.3 0.00 0.03 0.00 83 1008.5
20260902002533 25 45 3.2 11.3 0.00 0.03 0.00 83 1008.6
20260902002433 25 180 4.8 11.3 0.00 0.03 0.00 83 1008.5
20260902002333 25 0 3.2 12.9 0.00 0.03 0.00 83 1008.5
20260902002233 25 315 3.2 12.9 0.00 0.03 0.00 83 1008.5
20260902002133 25 45 3.2 12.9 0.00 0.03 0.00 83 1008.6
20260902002033 24 45 1.6 12.9 0.00 0.03 0.00 83 1008.7
20260902001933 24 45 1.6 12.9 0.00 0.03 0.00 83 1008.6
20260902001833 24 270 3.2 12.9 0.00 0.03 0.00 83 1008.6
20260902001733 24 315 3.2 12.9 0.00 0.03 0.00 83 1008.5
20260902001633 24 315 3.2 12.9 0.00 0.03 0.00 83 1008.6
20260902001533 24 45 4.8 12.9 0.00 0.03 0.00 83 1008.6
20260902001433 24 0 4.8 12.9 0.00 0.03 0.00 83 1008.7
20260902001333 24 45 4.8 9.7 0.00 0.03 0.00 83 1008.6
20260902001233 24 315 3.2 9.7 0.00 0.03 0.00 83 1008.5
20260902001133 24 270 3.2 9.7 0.00 0.03 0.00 83 1008.5
20260902001033 24 270 4.8 9.7 0.00 0.03 0.00 83 1008.6
20260902000933 24 315 3.2 9.7 0.00 0.03 0.00 83 1008.6
20260902000833 24 315 3.2 9.7 0.00 0.03 0.00 83 1008.6
20260902000733 24 270 3.2 9.7 0.00 0.03 0.00 83 1008.6
20260902000633 24 270 3.2 9.7 0.00 0.03 0.00 83 1008.7
20260902000533 24 270 4.8 9.7 0.00 0.03 0.00 83 1008.6
20260902000433 24 45 1.6 8.0 0.00 0.03 0.00 83 1008.5
20260902000333 24 315 1.6 8.0 0.00 0.03 0.00 83 1008.5
20260902000233 24 180 1.6 11.3 0.00 0.03 0.00 84 1008.5
20260902000133 24 180 1.6 11.3 0.00 0.03 0.00 84 1008.6
20260902000033 24 225 3.2 11.3 0.00 0.03 0.00 84 1008.5
20260901235933 24 180 3.2 11.3 0.00 0.03 0.00 84 1008.6
20260901235833 24 270 1.6 11.3 0.00 0.03 0.00 84 1008.5
20260901235732 24 225 1.6 11.3 0.00 0.03 0.00 84 1008.5
20260901235633 24 315 0.0 11.3 0.00 0.03 0.00 84 1008.5
20260901235532 24 1 11.3 0.0 0.00 0.03 0.00 84 1008.6
20260901235433 24 45 3.2 11.3 0.00 0.03 0.00 84 1008.6
20260901235333 24 315 3.2 11.3 0.00 0.03 0.00 84 1008.5
20260901235233 24 45 3.2 9.7 0.00 0.03 0.00 84 1008.4
20260901235133 24 225 3.2 9.7 0.00 0.03 0.00 84 1008.4
20260901235033 24 45 0.0 9.7 0.00 0.03 0.00 84 1008.6
20260901234933 24 270 0.0 9.7 0.00 0.03 0.00 84 1008.5
20260901234832 24 225 1.6 9.7 0.00 0.03 0.00 84 1008.5
20260901234733 24 270 0.0 9.7 0.00 0.03 0.00 84 1008.6
20260901234633 23 270 1.6 9.7 0.00 0.03 0.00 84 1008.5
20260901234533 23 315 3.2 9.7 0.00 0.03 0.00 84 1008.6
20260901234432 23 45 1.6 8.0 0.00 0.03 0.00 84 1008.5
20260901234332 23 0 1.6 8.0 0.00 0.03 0.00 84 1008.5
20260901234233 23 270 0.0 8.0 0.00 0.03 0.00 84 1008.6
20260901234133 23 180 0.0 8.0 0.00 0.03 0.00 84 1008.6
20260901234033 23 315 1.6 8.0 0.00 0.03 0.00 84 1008.6
20260901233932 23 45 3.2 8.0 0.00 0.03 0.00 84 1008.5
20260901233833 23 180 1.6 8.0 0.00 0.03 0.00 84 1008.5
20260901233733 23 315 1.6 8.0 0.00 0.03 0.00 84 1008.5
20260901233633 23 270 3.2 8.0 0.00 0.03 0.00 84 1008.7
20260901233533 23 270 3.2 8.0 0.00 0.03 0.00 84 1008.6
20260901233433 23 45 3.2 8.0 0.00 0.03 0.00 84 1008.6
20260901233333 23 315 1.6 8.0 0.00 0.03 0.00 84 1008.6
20260901233233 23 0 1.6 6.4 0.00 0.03 0.00 84 1008.6
20260901233133 23 0 3.2 6.4 0.00 0.03 0.00 84 1008.6
20260901233033 23 270 3.2 6.4 0.00 0.03 0.00 84 1008.6
20260901232933 23 45 3.2 6.4 0.00 0.03 0.00 84 1008.7
20260901232833 23 45 3.2 6.4 0.00 0.03 0.00 84 1008.7
20260901232733 23 180 1.6 6.4 0.00 0.03 0.00 84 1008.7
20260901232633 23 180 0.0 6.4 0.00 0.03 0.00 84 1008.6
20260901232533 23 315 1.6 9.7 0.00 0.03 0.00 84 1008.6
20260901232433 23 45 1.6 9.7 0.00 0.03 0.00 84 1008.6
20260901232333 23 180 1.6 9.7 0.00 0.03 0.00 84 1008.7
20260901232233 23 270 1.6 9.7 0.00 0.03 0.00 84 1008.9
20260901232133 23 45 1.6 9.7 0.00 0.03 0.00 84 1008.6
20260901232033 23 45 1.6 9.7 0.00 0.03 0.00 84 1008.7
20260901231933 23 315 0.0 9.7 0.00 0.03 0.00 84 1008.8
20260901231833 23 45 1.6 9.7 0.00 0.03 0.00 84 1008.8
20260901231733 23 0 3.2 9.7 0.00 0.03 0.00 84 1008.9
20260901231633 23 225 1.6 9.7 0.00 0.03 0.00 83 1008.7
20260901231533 23 0 3.2 9.7 0.00 0.03 0.00 84 1008.9
20260901231432 23 1 9.7 0.0 0.00 0.03 0.00 84 1008.6
20260901231333 23 45 0.0 8.0 0.00 0.03 0.00 84 1008.7
20260901231233 23 225 0.0 8.0 0.00 0.03 0.00 84 1008.8
20260901231133 23 180 0.0 8.0 0.00 0.03 0.00 84 1008.9
20260901231033 23 270 1.6 8.0 0.00 0.03 0.00 84 1008.9
20260901230932 23 270 3.2 8.0 0.00 0.03 0.00 84 1008.8
20260901230832 23 45 3.2 8.0 0.00 0.03 0.00 84 1009.0
20260901230733 23 270 3.2 8.0 0.00 0.03 0.00 84 1008.9
20260901230633 23 45 3.2 8.0 0.00 0.03 0.00 84 1008.9
20260901230533 23 270 3.2 8.0 0.00 0.03 0.00 84 1008.9
20260901230432 23 225 3.2 8.0 0.00 0.03 0.00 84 1008.9
20260901230232 23 225 0.0 6.4 0.00 0.03 0.00 85 1009.0
20260901230133 23 180 0.0 6.4 0.00 0.03 0.00 85 1008.8
20260901230032 23 315 0.0 6.4 0.00 0.03 0.00 85 1008.9
20260901225932 23 270 0.0 6.4 0.00 0.03 0.00 85 1008.9
20260901225832 23 315 1.6 6.4 0.00 0.03 0.00 85 1008.8
20260901225732 23 225 3.2 6.4 0.00 0.03 0.00 85 1008.7
20260901225633 23 45 1.6 6.4 0.00 0.03 0.00 85 1008.8
20260901225532 23 270 0.0 6.4 0.00 0.03 0.00 85 1008.9
20260901225432 23 315 0.0 6.4 0.00 0.03 0.00 85 1008.9
20260901225232 23 225 0.0 6.4 0.00 0.03 0.00 85 1009.0
20260901225132 23 270 1.6 6.4 0.00 0.03 0.00 85 1009.0
20260901225032 23 315 0.0 6.4 0.00 0.03 0.00 85 1008.9
20260901224932 23 315 0.0 8.0 0.00 0.03 0.00 85 1008.9
20260901224832 23 315 1.6 8.0 0.00 0.03 0.00 85 1008.9
20260901224732 23 45 3.2 8.0 0.00 0.03 0.00 85 1008.9
20260901224632 23 270 1.6 8.0 0.00 0.03 0.00 85 1008.8
20260901224532 23 180 1.6 8.0 0.00 0.03 0.00 85 1008.9
20260901224432 23 0 3.2 8.0 0.00 0.03 0.00 85 1008.8
20260901224332 23 45 3.2 8.0 0.00 0.03 0.00 85 1009.0
20260901224232 23 45 1.6 8.0 0.00 0.03 0.00 85 1008.9
20260901224132 23 315 1.6 8.0 0.00 0.03 0.00 85 1008.9
20260901224032 23 45 1.6 8.0 0.00 0.03 0.00 85 1008.9
20260901223932 23 315 0.0 8.0 0.00 0.03 0.00 86 1008.8
20260901223832 23 45 1.6 8.0 0.00 0.03 0.00 86 1008.9
20260901223632 23 45 1.6 6.4 0.00 0.03 0.00 86 1008.8
20260901223532 23 0 1.6 6.4 0.00 0.03 0.00 86 1008.7
20260901223432 23 45 1.6 6.4 0.00 0.03 0.00 86 1008.7
20260901223332 23 270 1.6 8.0 0.00 0.03 0.00 86 1008.7
20260901223232 23 315 3.2 8.0 0.00 0.03 0.00 86 1008.8
20260901223132 23 0 1.6 8.0 0.00 0.03 0.00 86 1008.9
20260901223032 23 45 0.0 8.0 0.00 0.03 0.00 86 1009.0
20260901222932 23 0 1.6 8.0 0.00 0.03 0.00 86 1008.7
20260901222832 23 315 1.6 8.0 0.00 0.03 0.00 86 1008.6
20260901222732 23 45 1.6 8.0 0.00 0.03 0.00 86 1008.7
20260901222632 23 270 1.6 8.0 0.00 0.03 0.00 86 1008.6
20260901222532 23 45 1.6 8.0 0.00 0.03 0.00 86 1008.7
20260901222432 23 45 1.6 9.7 0.00 0.03 0.00 86 1008.8
20260901222332 23 270 1.6 9.7 0.00 0.03 0.00 86 1008.7
20260901222232 23 0 1.6 9.7 0.00 0.03 0.00 86 1008.7
20260901222132 23 45 1.6 9.7 0.00 0.03 0.00 86 1008.6
20260901222032 23 0 0.0 9.7 0.00 0.03 0.00 87 1008.8
20260901221932 23 180 0.0 9.7 0.00 0.03 0.00 87 1008.6